GFSNE_sfc_wetblb_072.txt.gz
Wetbulb
57.16 56.77 57.55 57.89 58.18 57.79 57.18 56.57 53.79 50.49 50.37 52.27 53.20 55.19 55.11 56.59 53.93 52.93 52.54 47.47 46.23 45.94 46.41 47.77 48.90 49.13 49.01 49.06 48.84 48.53 48.56 48.43 48.37 48.33 48.22 48.24 48.33 48.27
57.45 57.06 57.32 57.74 58.22 58.50 58.33 57.15 55.82 54.33 51.60 53.94 53.67 55.07 55.42 55.56 53.74 49.70 49.52 47.69 45.54 44.93 45.01 45.13 45.96 46.61 47.03 46.94 46.75 46.27 46.03 45.74 45.74 45.69 45.64 45.74 45.78 45.52
57.30 57.13 57.42 58.24 57.98 58.22 58.24 58.12 56.53 55.86 53.53 54.90 53.78 53.76 51.39 52.08 48.13 49.18 49.51 47.90 45.00 43.98 43.67 43.56 43.50 43.72 43.73 43.41 43.14 43.17 43.01 42.92 42.64 42.21 41.81 41.86 42.27 42.70
56.49 56.63 56.95 57.66 57.38 58.07 58.22 57.35 57.09 56.85 55.15 53.14 53.68 51.37 51.24 51.59 47.65 46.81 49.56 49.98 48.35 45.34 44.14 43.87 42.95 41.86 41.19 40.74 40.58 40.14 40.13 39.83 39.86 39.32 39.34 39.84 40.08 40.15
56.62 56.54 56.52 56.88 56.56 57.77 57.82 56.63 56.53 55.80 55.02 53.66 53.20 48.61 48.61 46.52 45.79 45.62 45.38 46.06 48.29 47.92 44.47 42.60 42.11 41.44 40.90 39.89 39.01 39.10 39.60 39.36 39.11 38.99 38.68 38.38 38.34 38.17
57.34 57.37 57.08 56.88 56.60 57.12 56.78 56.03 55.08 53.86 53.60 52.67 52.24 43.42 45.51 43.80 45.87 44.34 42.67 43.36 43.57 45.70 44.01 42.14 41.33 40.88 40.21 39.26 38.73 39.11 39.22 39.35 39.30 39.25 38.72 37.85 37.29 37.54
57.66 57.69 57.52 55.96 51.68 54.47 55.91 54.65 53.79 52.56 52.15 50.69 49.74 40.32 41.01 38.66 42.00 42.71 41.24 39.77 41.17 42.35 39.29 38.33 37.62 35.56 36.32 39.35 38.82 39.52 39.31 39.33 39.58 39.50 39.24 38.32 37.57 37.54
56.30 56.94 57.08 49.35 49.60 46.19 45.70 46.44 51.78 52.90 50.69 49.43 48.17 43.92 43.73 40.12 37.60 36.82 35.35 33.92 31.76 40.11 37.13 35.98 36.51 34.74 36.69 37.09 39.03 38.81 38.91 39.30 39.47 39.39 38.80 38.19 37.73 37.08
56.33 56.22 55.54 54.56 48.46 52.64 44.34 39.84 35.76 35.29 39.48 46.89 43.83 36.59 34.78 36.52 36.59 33.60 32.28 32.11 31.84 35.04 34.87 31.77 34.44 32.99 35.62 37.86 38.41 38.76 38.00 37.92 37.77 37.61 37.30 37.08 37.02 36.20
55.98 55.77 53.37 52.76 49.33 45.60 37.11 33.05 32.72 33.03 34.01 34.87 33.99 33.60 34.16 35.19 34.86 33.71 32.26 32.23 32.14 33.49 34.20 28.24 31.77 30.63 34.04 34.54 37.53 38.08 38.05 37.44 37.56 37.57 37.40 36.86 36.47 36.01
40.05 39.71 42.23 40.81 38.90 38.50 34.31 32.84 30.87 30.05 32.87 33.59 33.29 33.26 33.24 33.30 33.23 32.46 30.50 29.41 29.18 28.98 32.81 30.68 30.37 29.16 29.79 29.70 32.71 36.24 35.74 35.19 35.82 36.61 36.91 37.05 36.57 35.98
33.60 34.18 34.88 35.21 35.10 35.38 34.01 31.78 29.03 27.46 27.73 27.51 27.24 28.95 29.47 29.12 29.04 29.91 29.55 28.48 28.50 26.66 29.06 27.58 27.39 26.72 24.68 28.11 28.77 28.90 28.31 33.20 33.62 33.95 34.66 35.62 36.45 33.71
31.51 31.41 32.41 33.71 33.84 33.30 32.03 29.75 27.99 28.99 28.92 28.28 28.21 28.59 29.75 30.11 29.94 27.98 28.78 28.10 27.19 26.25 29.18 26.25 24.35 23.81 23.48 23.95 25.55 26.75 27.18 27.98 28.70 30.87 34.28 34.75 36.00 36.04
30.04 30.56 31.62 32.27 31.66 30.67 29.52 29.75 29.40 29.01 28.52 27.66 27.30 27.23 26.97 26.87 28.12 28.08 28.24 27.87 28.30 26.97 28.11 27.42 23.02 23.42 22.06 21.19 20.70 24.41 25.86 27.10 28.31 28.29 29.14 32.04 34.64 36.31
29.80 30.13 30.25 29.84 29.38 28.75 29.59 29.90 29.28 28.88 28.24 27.29 26.58 27.08 27.20 26.13 26.73 27.29 27.86 27.79 27.08 27.29 28.19 27.39 24.23 23.88 22.36 20.39 20.11 22.12 23.05 24.97 26.91 27.08 26.79 27.70 29.61 33.69
27.35 26.32 26.16 26.26 26.68 27.49 26.62 26.72 26.40 26.30 26.46 25.21 25.05 25.86 26.63 25.96 25.49 26.30 25.02 24.55 23.03 22.90 26.02 26.14 25.24 23.44 21.54 22.01 22.12 21.39 23.07 21.54 24.48 25.12 26.17 27.29 28.60 33.17
27.60 27.47 26.68 26.52 26.04 26.12 26.30 25.66 25.74 26.06 24.09 24.00 23.30 22.85 22.78 23.01 22.80 23.47 22.82 21.31 17.81 18.56 19.90 23.78 24.86 24.27 23.75 22.87 20.05 21.04 21.35 21.65 23.41 24.95 25.77 25.23 27.01 30.96
29.32 28.06 27.56 27.01 26.16 25.76 24.69 23.93 23.86 21.62 21.81 22.18 21.54 21.22 20.28 19.70 19.41 19.77 20.62 19.73 18.67 18.87 18.90 20.26 20.97 20.63 20.86 22.09 25.23 20.92 21.69 23.12 23.36 22.40 22.65 21.90 23.03 26.60
25.29 24.11 23.61 23.25 22.86 22.93 22.24 22.08 20.36 20.76 21.89 19.72 18.45 17.91 18.19 17.93 17.46 17.26 17.65 17.79 17.25 17.44 17.63 18.56 17.76 15.69 11.69 10.15 19.79 24.62 18.09 18.41 18.81 18.80 21.20 22.15 22.70 26.20
23.26 22.16 21.34 21.31 21.25 20.38 19.94 19.10 18.86 18.97 17.36 16.52 15.15 14.10 14.31 14.99 13.70 13.72 14.31 12.49 13.36 14.22 14.26 15.76 15.78 16.70 14.65 11.50 12.36 16.30 23.58 18.88 18.15 17.88 19.62 23.72 25.42 29.07
20.13 19.18 19.25 19.07 19.11 18.97 18.45 17.95 16.42 15.44 15.36 13.45 13.89 12.83 8.40 11.80 9.91 11.08 10.68 9.80 10.22 12.86 12.09 12.94 15.52 17.85 17.18 16.73 11.18 12.73 17.27 23.66 23.34 21.34 22.05 20.53 19.58 22.21
18.70 17.87 17.39 17.28 16.65 16.10 15.60 14.66 13.45 12.79 12.26 11.03 7.60 6.42 6.12 7.32 7.45 6.44 6.11 7.49 10.77 11.35 12.12 13.78 15.86 16.09 14.96 14.04 12.00 11.91 14.34 17.35 21.96 24.07 26.23 25.53 22.40 19.03
15.39 16.04 15.48 14.76 13.99 13.28 13.09 11.60 11.16 9.25 8.89 7.52 8.97 8.98 1.42 3.03 7.46 7.21 8.05 9.74 10.45 10.17 10.66 11.07 13.00 14.04 13.00 12.91 12.04 12.19 13.27 14.43 17.69 18.84 20.37 25.97 27.44 29.04

GFSNE_sfc_wetblb_075.txt.gz
Wetbulb
56.95 56.37 56.15 55.72 55.88 56.13 56.15 55.90 53.21 49.52 49.75 50.56 51.33 53.23 54.42 54.14 53.18 53.56 53.26 51.49 47.95 47.47 47.64 49.01 50.57 51.16 51.34 51.54 51.73 51.56 51.53 51.01 50.55 50.50 50.19 50.00 49.70 49.51
56.80 56.17 55.86 56.05 56.10 56.69 56.85 56.46 56.03 54.13 51.50 52.83 52.22 53.09 53.69 54.89 54.32 54.36 54.73 51.35 46.93 46.13 45.91 46.77 47.71 48.80 49.07 48.94 48.80 49.14 49.43 49.13 48.77 48.40 47.92 47.50 47.52 47.15
56.41 56.10 56.02 55.80 55.76 55.89 56.47 56.37 55.82 55.57 52.80 54.51 54.97 55.07 53.15 54.52 54.59 54.20 54.16 52.36 51.14 45.40 45.13 45.22 45.41 45.71 45.77 45.82 46.33 46.61 46.72 46.75 46.15 45.65 45.15 44.89 44.44 43.64
55.75 55.79 55.52 55.84 55.42 56.44 56.35 55.91 55.88 56.03 54.66 52.77 54.84 54.13 51.26 52.87 54.38 49.94 49.94 50.54 48.36 45.52 44.48 44.37 44.67 43.52 43.06 43.11 43.06 42.82 42.68 42.80 42.41 41.79 41.26 40.88 40.99 41.35
55.47 54.54 54.73 54.78 54.97 56.02 56.06 56.22 56.61 56.37 56.18 55.27 54.56 55.58 53.52 48.39 49.33 47.87 48.83 49.28 48.78 47.85 43.54 43.31 42.80 42.83 42.42 41.70 41.22 40.83 40.49 39.82 39.67 39.59 39.53 39.14 38.78 38.88
55.50 55.24 55.13 54.75 54.71 55.27 55.40 55.72 56.50 56.50 56.30 55.13 54.36 54.02 50.16 47.74 49.70 50.33 44.82 46.68 46.77 47.73 45.76 43.64 43.26 42.59 41.94 41.14 40.30 39.53 39.36 39.79 39.73 39.31 38.62 37.85 37.85 38.45
55.17 55.50 55.45 54.30 50.74 52.91 55.24 55.29 56.16 55.69 55.27 53.98 52.55 52.40 46.08 40.10 44.11 47.04 47.42 46.41 41.65 42.77 41.41 40.80 40.50 39.83 39.51 40.09 38.58 39.70 39.81 39.48 39.65 39.86 39.70 38.67 37.80 37.87
54.40 55.17 55.68 49.57 49.57 45.85 45.57 47.55 53.82 55.19 54.26 53.32 52.50 51.16 50.80 47.72 44.76 40.78 36.42 35.49 35.19 39.08 36.74 35.99 38.61 37.13 38.62 38.94 38.38 38.85 38.66 39.28 39.56 39.89 39.74 39.53 38.55 37.45
55.48 55.45 54.91 54.86 48.76 53.53 43.85 38.65 36.38 36.33 38.42 48.87 51.13 50.52 42.81 37.37 36.88 34.24 33.32 33.29 32.49 33.14 34.51 32.12 35.52 33.50 37.42 38.44 38.24 38.43 38.49 38.42 38.51 38.54 38.57 38.16 37.55 36.90
55.19 55.02 54.57 54.32 51.64 49.48 39.85 34.17 32.99 33.52 34.44 36.11 36.86 34.47 35.03 35.72 36.09 35.29 33.63 32.18 31.96 33.38 33.94 29.59 32.66 31.71 34.85 35.52 37.45 38.33 37.79 37.32 36.91 36.66 36.95 37.11 36.78 36.41
42.80 41.03 45.58 47.54 43.11 41.17 36.47 32.13 30.66 30.54 33.91 34.49 34.19 33.85 33.91 34.48 34.99 34.04 31.44 30.74 28.71 29.77 32.28 30.57 31.16 30.85 31.13 31.01 33.18 35.80 33.61 33.78 34.76 34.90 34.52 34.88 35.15 35.07
34.59 35.12 35.72 37.68 36.02 36.07 34.34 31.75 28.42 27.59 28.49 29.18 29.39 29.19 29.80 30.80 32.32 31.83 31.17 28.62 28.84 27.64 29.61 28.02 27.40 27.13 25.52 28.00 28.04 28.57 28.32 30.39 31.13 32.23 33.37 33.98 34.69 31.68
32.19 32.03 33.52 34.80 34.99 34.43 33.32 31.35 29.36 29.00 28.53 28.76 28.75 29.15 29.78 29.83 29.41 29.12 29.56 28.89 27.66 27.26 28.35 27.13 25.20 24.94 25.08 24.77 25.67 26.98 26.62 26.56 26.53 27.23 30.09 32.35 32.84 32.14
30.60 31.32 31.71 32.20 31.83 31.29 30.27 30.40 29.86 29.28 28.86 27.95 27.15 26.77 26.93 26.54 27.07 27.33 27.92 28.08 28.34 26.74 27.91 27.37 24.00 23.92 22.73 21.31 20.82 24.10 23.70 24.37 24.76 25.68 26.20 28.53 30.20 31.32
30.09 30.62 30.79 30.31 29.96 28.94 29.79 29.77 29.27 28.82 27.92 26.57 25.52 24.81 25.84 26.97 27.87 27.95 28.30 27.84 27.44 27.48 27.47 27.55 26.00 24.91 23.38 21.21 19.97 20.89 21.32 23.16 24.50 23.77 24.06 24.02 24.10 25.30
26.92 27.50 27.01 26.93 26.51 25.84 26.15 26.83 26.59 26.23 25.33 24.50 24.18 24.96 25.85 25.26 24.42 25.11 23.96 23.70 23.08 22.88 25.16 26.31 25.69 24.64 21.64 22.02 21.57 20.57 21.93 19.74 22.68 23.28 23.69 23.98 24.74 24.41
27.69 27.48 26.23 25.84 24.69 24.24 24.70 24.11 24.05 23.96 22.73 23.11 22.51 22.20 22.05 21.97 21.28 21.82 21.64 21.19 19.32 19.21 20.17 22.63 23.77 23.76 22.77 22.40 19.83 20.51 20.08 20.44 21.72 22.98 22.09 20.44 21.84 23.13
27.18 24.77 23.77 23.70 23.26 22.69 21.03 20.29 21.18 21.57 21.75 20.87 19.94 19.60 18.49 18.37 18.21 19.10 19.40 18.40 17.14 17.40 17.17 18.33 17.60 16.74 17.97 19.43 22.01 18.47 18.85 17.70 18.89 20.09 20.20 18.07 18.22 21.23
22.62 22.13 21.32 21.13 20.75 20.67 20.34 19.61 17.73 18.49 19.16 18.30 17.87 17.25 17.33 16.85 15.83 15.57 15.45 14.46 13.69 14.13 14.57 15.70 15.39 13.45 10.78 8.63 15.70 20.92 15.60 16.62 17.30 16.92 18.36 18.41 17.62 19.70
20.50 19.14 18.67 18.85 19.07 18.43 18.24 18.11 17.18 16.77 16.53 16.07 14.81 13.79 13.28 13.55 12.84 12.30 12.11 9.87 11.29 12.53 12.92 14.43 14.00 13.82 10.38 8.66 9.96 13.56 20.68 16.61 15.61 15.54 17.13 19.69 21.68 25.05
17.92 17.19 17.34 16.98 16.85 16.31 15.34 14.76 13.86 12.94 12.42 11.71 11.29 10.86 8.54 10.44 9.51 9.93 8.69 8.20 8.56 11.02 10.12 10.76 12.97 15.39 15.15 14.57 8.15 9.05 13.75 19.92 19.52 16.69 16.84 15.86 15.85 17.58
16.13 14.92 14.60 13.81 13.19 12.85 11.94 11.76 11.18 10.45 9.77 9.81 6.43 4.53 2.94 5.41 4.43 4.66 4.34 3.83 9.08 9.18 9.60 11.48 14.10 13.88 12.12 10.50 8.23 8.17 11.23 13.91 18.06 20.28 21.69 21.17 18.07 15.75
12.16 11.99 11.00 10.49 10.18 9.61 9.40 8.00 6.96 6.72 6.51 5.08 3.35 1.79 -8.05 -0.63 3.58 2.79 3.04 6.09 7.57 7.67 8.77 8.75 9.67 10.97 10.35 10.42 8.95 9.02 9.81 10.95 14.01 15.37 18.17 22.82 23.32 25.03

GFSNE_sfc_wetblb_078.txt.gz
Wetbulb
56.43 56.20 55.78 56.06 55.88 56.16 55.99 54.90 52.67 49.39 50.39 51.65 52.00 53.80 54.86 55.30 53.49 52.81 52.05 50.97 48.18 47.70 47.93 49.22 51.02 52.44 53.49 54.87 55.82 56.02 56.09 55.51 55.28 55.09 54.70 53.96 52.75 52.30
56.71 55.95 56.12 56.31 56.52 56.56 55.96 55.80 55.22 53.27 50.13 53.17 52.48 53.80 54.15 54.73 54.27 53.23 53.66 51.23 48.84 46.94 46.62 47.14 48.04 49.98 51.48 52.56 52.64 52.28 52.59 52.94 52.90 52.38 51.86 51.10 50.70 50.16
56.40 55.48 55.34 56.07 55.88 55.85 55.93 55.78 55.01 54.46 51.98 53.02 53.83 54.30 51.19 52.73 53.62 53.06 53.74 53.76 53.91 48.33 46.62 46.32 46.20 46.78 48.41 48.32 48.79 49.14 49.21 49.54 49.83 49.89 49.32 48.97 48.75 48.33
55.48 55.30 54.89 55.38 54.60 55.24 55.33 54.94 54.44 54.54 53.00 51.32 53.49 53.43 51.72 53.93 53.97 53.05 53.54 54.24 54.11 50.96 46.66 46.11 45.77 45.22 45.30 45.24 45.13 45.52 45.68 45.76 45.57 45.78 45.67 45.11 45.00 44.85
54.85 54.29 54.57 54.30 54.01 54.65 54.79 54.34 54.09 54.17 54.01 53.31 53.12 54.70 54.91 52.34 52.33 51.81 53.43 52.98 52.22 49.91 45.13 44.12 44.70 45.18 44.71 44.11 43.91 43.43 42.49 41.80 41.30 40.88 40.40 40.53 40.73 40.71
54.31 54.47 54.30 54.21 54.14 54.15 53.72 53.90 54.32 54.05 54.21 54.08 53.93 54.29 55.34 54.23 51.90 53.08 50.81 50.04 50.83 50.91 47.32 44.36 43.96 44.10 43.44 42.14 41.62 41.48 40.40 38.87 38.52 38.56 38.41 38.21 37.96 38.86
54.32 54.59 54.96 53.75 50.48 52.23 54.21 53.98 53.90 53.48 53.43 53.39 53.56 54.03 54.03 44.37 47.32 51.87 49.51 51.61 42.29 43.08 42.62 41.78 42.38 42.31 42.04 41.41 40.59 38.58 38.60 37.84 37.55 37.99 38.13 38.88 37.96 38.00
53.43 53.90 54.44 49.03 48.99 44.93 44.66 45.99 51.22 52.80 52.64 53.27 53.53 52.86 53.60 53.88 51.26 50.11 50.60 37.83 39.20 39.23 37.61 36.34 38.47 37.28 38.19 38.47 38.34 37.51 37.07 37.04 37.64 38.52 39.32 39.80 39.39 38.25
53.92 53.86 53.65 54.11 48.64 52.77 46.48 42.37 42.00 39.13 41.04 52.71 53.58 53.95 53.82 54.55 51.88 37.50 36.19 35.43 33.14 34.56 35.60 32.23 35.67 35.02 38.37 38.87 38.06 37.53 37.53 38.36 37.93 38.10 38.67 39.06 38.63 37.89
55.32 54.96 54.39 54.21 53.61 52.48 52.03 45.40 40.64 35.01 35.52 37.36 39.63 39.63 36.25 37.83 39.45 38.25 35.36 32.29 32.07 32.64 34.16 30.37 32.93 31.86 34.69 34.87 35.30 36.17 36.38 37.14 36.78 35.63 35.84 35.86 35.87 36.36
55.21 55.43 53.72 53.91 50.61 45.43 47.91 37.71 31.80 31.60 34.19 34.61 33.92 33.50 33.62 34.40 35.84 35.58 32.55 32.78 29.09 29.47 32.31 30.94 30.91 30.91 31.87 31.90 34.45 36.04 33.56 32.33 32.26 32.08 32.82 33.51 34.25 34.43
40.68 36.83 35.17 37.83 39.00 39.36 47.91 37.04 30.96 29.15 29.79 29.56 29.36 30.01 30.47 30.94 31.53 30.95 31.57 29.40 28.72 27.20 27.32 28.04 27.58 27.65 25.80 28.03 29.31 28.81 28.31 29.42 29.47 29.75 30.11 30.95 31.51 31.11
32.70 31.92 32.84 33.60 33.96 33.62 33.32 31.73 28.97 29.75 29.20 28.87 28.27 28.31 28.23 28.19 28.18 28.38 28.44 28.15 27.20 24.13 27.06 26.44 24.51 25.08 24.85 24.30 25.91 27.09 26.54 26.00 25.98 26.45 28.50 29.06 29.61 29.54
30.45 30.66 31.23 32.08 31.70 31.25 30.34 30.62 30.36 29.33 28.53 27.37 26.12 25.22 25.19 25.72 26.79 27.64 28.13 28.05 28.24 26.74 28.00 27.66 24.76 24.11 22.96 21.41 20.63 24.60 24.81 25.26 25.39 25.20 25.25 26.89 27.92 27.98
29.22 29.70 30.13 29.87 29.55 28.41 29.15 29.24 28.80 28.00 26.43 24.69 23.82 24.22 25.52 26.56 27.46 27.18 27.42 27.38 27.10 26.69 25.70 26.13 25.08 24.25 24.05 21.98 21.20 21.98 22.02 23.52 24.86 24.08 24.31 23.82 23.66 24.04
27.20 26.78 26.88 26.53 25.86 25.36 25.27 25.44 24.81 24.86 24.16 23.27 22.69 23.79 24.81 23.27 22.68 24.04 22.43 22.45 22.09 21.52 24.39 25.60 24.40 23.27 20.69 21.26 20.99 20.18 21.66 19.47 21.82 22.22 22.95 22.09 22.35 22.07
27.18 26.25 24.74 23.54 22.37 22.06 22.24 23.09 23.22 22.99 21.71 21.91 20.99 20.55 20.08 20.24 19.71 20.92 20.48 19.55 17.43 17.73 18.69 20.21 20.75 20.73 20.62 19.44 16.87 17.89 18.19 18.62 18.91 18.90 18.89 17.90 18.87 19.55
24.17 22.14 21.72 21.38 20.10 20.10 19.74 19.13 19.44 19.74 19.73 19.16 18.60 18.69 17.45 17.30 17.11 17.41 17.07 16.06 14.46 14.51 14.29 15.66 16.24 16.11 16.69 17.76 20.40 15.11 15.10 14.80 16.42 17.52 18.34 16.15 16.37 19.08
20.24 19.40 18.40 18.42 18.44 18.81 18.15 17.62 16.84 18.40 19.26 16.97 15.65 15.32 15.27 15.38 14.76 13.79 13.27 13.00 12.07 12.63 13.60 15.19 14.22 11.86 6.77 3.54 13.24 18.71 13.30 14.57 15.38 14.70 16.04 15.73 14.97 17.24
18.11 17.32 16.92 17.27 17.43 17.16 16.99 15.88 15.21 14.79 14.47 13.90 12.44 11.75 11.84 12.25 10.96 10.57 10.45 6.96 9.80 10.86 11.09 12.45 11.41 11.11 6.78 1.55 7.77 11.91 18.46 13.78 12.61 11.77 12.62 15.47 17.46 20.83
15.54 14.44 14.80 14.39 14.01 13.93 12.86 12.46 11.72 10.97 10.28 9.19 8.55 6.49 1.44 6.22 5.31 7.51 5.96 5.15 6.11 9.27 7.86 8.61 11.37 14.22 13.22 12.20 1.76 5.27 11.19 17.69 17.45 14.59 14.50 13.19 12.89 14.24
12.61 11.80 11.43 10.53 10.11 10.42 9.19 8.36 8.23 7.14 6.29 6.58 2.48 -0.05 -2.95 2.69 1.20 3.29 2.90 2.51 6.68 7.59 8.46 10.38 11.67 11.72 10.21 8.38 6.51 5.92 9.00 11.44 15.99 18.42 19.65 19.06 15.75 12.68
8.68 7.61 6.17 4.55 4.18 4.07 5.24 3.31 2.01 1.08 0.92 -1.00 -0.82 -0.30 -8.32 -0.64 3.46 2.63 2.79 4.96 6.47 6.37 7.07 6.98 8.61 9.30 8.27 8.21 7.27 7.39 8.34 8.91 11.17 11.59 13.39 19.14 20.54 21.39

GFSNE_sfc_wetblb_081.txt.gz
Wetbulb
55.83 55.37 55.87 55.83 55.85 55.92 55.39 54.46 52.16 48.77 49.03 51.01 52.01 53.93 54.76 54.72 53.52 53.14 52.54 51.27 48.42 47.95 48.14 49.37 51.33 52.69 53.56 54.40 55.32 56.39 57.56 58.17 58.75 58.71 58.61 58.62 58.27 57.40
56.43 55.13 54.99 55.19 55.61 55.79 55.43 55.03 54.51 53.12 50.21 53.75 53.06 53.48 54.43 54.86 54.90 53.73 53.34 50.89 48.61 46.93 46.51 47.06 47.95 49.40 50.39 51.36 52.39 53.14 54.32 55.55 56.43 56.86 56.93 56.34 56.11 55.67
55.84 55.27 55.09 56.10 55.32 55.50 55.49 55.02 54.42 54.25 51.86 53.59 54.57 53.72 51.85 53.05 53.79 53.93 53.93 53.33 53.12 47.73 46.56 46.37 46.07 46.14 47.07 47.80 48.53 49.82 51.03 52.18 53.39 54.46 54.26 53.95 53.18 52.28
55.56 55.44 55.28 55.45 54.91 55.13 54.86 54.14 54.24 54.54 53.17 51.76 53.88 53.76 51.63 53.39 53.47 53.21 53.43 53.89 53.93 51.76 48.22 47.22 46.76 45.94 45.41 45.54 45.87 46.92 48.12 49.28 48.88 49.08 48.96 49.09 49.11 48.84
55.94 55.49 55.48 55.16 54.27 54.67 54.33 54.03 53.99 54.26 54.32 53.01 52.71 54.67 54.25 50.87 51.23 51.37 53.05 53.81 53.97 52.03 48.05 46.47 46.26 46.06 45.40 44.88 45.02 45.94 46.38 45.38 44.57 43.68 42.59 41.73 40.80 40.14
55.27 55.64 55.16 54.50 54.17 54.27 53.80 54.07 54.36 53.91 53.64 52.81 52.54 52.71 53.19 53.66 52.30 53.64 53.05 51.99 52.91 53.81 50.44 48.29 46.69 44.91 44.35 44.13 43.86 44.63 43.46 42.25 40.79 39.27 38.15 37.77 37.32 37.23
53.97 53.85 54.07 53.23 49.90 51.75 53.98 53.42 52.84 52.21 52.15 52.09 52.01 52.47 52.22 52.29 49.21 53.08 52.27 52.95 53.58 51.29 49.17 43.07 43.54 43.48 43.79 42.90 43.28 42.38 40.19 39.57 39.07 38.69 38.23 37.46 36.79 36.34
53.43 53.71 53.88 48.46 48.37 44.44 44.39 45.74 50.99 51.97 51.01 51.30 51.36 50.91 51.16 52.38 53.23 52.74 52.03 51.61 47.95 41.05 40.47 36.87 38.98 38.47 40.14 39.55 39.16 38.95 38.53 38.19 38.24 37.92 37.86 37.96 37.94 37.62
53.91 53.87 53.64 53.73 48.40 52.56 46.69 42.24 42.88 42.48 44.97 52.41 51.36 51.41 51.31 52.77 53.31 52.72 51.53 51.50 50.28 36.72 36.11 32.54 36.03 35.49 38.69 38.64 38.28 37.99 37.52 37.39 37.35 37.32 37.07 37.24 37.27 37.31
54.75 54.46 54.22 54.29 53.75 52.40 51.95 51.08 48.73 48.91 44.08 43.16 46.88 47.47 42.98 39.62 43.11 42.85 38.56 32.60 32.54 32.63 34.12 31.73 32.19 31.47 34.23 34.72 35.62 35.90 36.13 36.00 36.36 36.21 35.35 35.15 35.61 36.04
55.08 55.12 47.31 50.44 48.14 44.53 49.67 49.32 40.29 32.03 34.24 34.73 34.13 33.79 33.73 33.97 35.68 36.14 33.26 34.03 31.20 28.73 28.73 31.12 29.89 30.49 31.06 31.63 33.46 34.58 34.21 34.02 32.90 32.03 31.60 31.41 31.53 32.10
38.12 34.82 34.14 34.15 34.09 35.13 38.51 46.47 35.48 29.36 29.77 29.84 29.32 29.22 29.87 30.32 30.91 29.74 31.91 30.20 28.66 25.56 26.56 27.50 27.26 27.39 26.53 28.80 28.61 28.55 28.74 29.91 29.37 29.05 29.40 29.71 29.94 28.65
32.27 30.95 31.71 33.17 33.49 33.47 32.85 31.91 30.77 29.52 28.38 27.78 27.38 27.32 27.37 27.37 27.56 27.85 27.93 27.79 24.54 23.07 27.54 27.39 25.96 26.20 25.99 25.43 26.49 27.53 27.00 26.63 26.19 26.61 27.61 27.81 28.51 28.26
29.93 30.38 30.95 31.81 31.83 31.35 30.57 30.80 30.25 28.99 27.53 26.02 25.01 24.62 25.00 25.16 26.11 26.64 27.04 26.81 26.74 25.00 26.20 26.41 24.75 24.07 23.29 22.29 21.68 25.08 25.47 25.80 25.51 25.11 25.90 26.42 26.62 26.98
28.78 29.24 29.20 29.04 28.74 27.80 28.36 28.22 27.50 26.42 25.04 23.44 22.29 22.00 22.92 24.36 25.27 24.96 26.29 26.09 25.31 25.51 25.69 24.97 23.61 23.24 23.01 21.44 20.55 21.23 21.13 23.28 25.33 24.01 24.35 23.81 23.34 23.86
26.47 25.81 25.54 25.32 24.44 24.12 23.92 24.34 23.79 23.67 22.66 21.64 20.80 21.71 22.26 21.47 20.97 22.44 21.32 22.67 21.19 21.30 22.13 21.84 21.01 20.64 18.78 18.99 19.01 18.01 19.57 17.70 20.37 19.27 19.68 19.64 20.89 21.42
24.07 22.78 21.23 20.83 20.01 19.98 19.73 20.31 20.72 20.43 19.09 19.61 19.18 18.98 19.26 19.12 18.01 19.30 19.08 18.56 16.06 15.41 15.72 17.81 19.98 20.27 20.00 18.65 16.35 15.67 15.25 15.51 16.33 16.63 16.85 15.76 17.37 17.62
20.39 18.76 18.46 18.46 17.57 17.55 17.21 17.42 18.08 17.76 17.96 17.74 17.03 16.74 16.03 16.04 15.41 15.62 15.71 14.81 13.44 13.41 13.73 14.99 14.97 13.82 13.88 15.19 18.75 13.64 13.32 13.32 14.97 16.30 16.58 13.49 13.64 16.45
17.44 16.61 16.37 17.14 17.17 17.36 16.84 16.45 15.07 15.65 16.09 14.45 13.94 14.17 14.67 13.98 13.44 12.12 12.14 12.31 12.12 12.29 12.67 13.52 12.35 10.49 5.33 1.28 11.71 17.61 11.53 12.89 12.69 11.99 13.17 12.85 11.96 14.09
15.34 14.23 13.51 14.54 14.79 14.70 14.28 13.62 12.94 12.70 12.22 11.31 9.94 10.15 11.03 11.33 10.27 9.82 9.78 8.95 9.96 10.25 9.86 10.89 10.77 9.76 6.09 -0.11 2.86 9.64 16.78 12.26 11.18 10.60 11.20 13.73 15.49 18.81
12.76 11.72 11.80 11.94 12.18 11.98 10.99 10.26 9.36 7.71 6.60 5.57 5.21 5.91 3.33 6.98 5.27 7.11 7.21 6.50 7.23 8.22 6.99 7.59 9.78 13.00 12.09 10.19 -1.17 2.82 9.59 16.29 15.90 12.87 12.63 11.42 11.22 12.45
9.53 8.90 8.82 8.02 7.94 8.48 6.35 6.29 5.45 4.07 2.88 2.68 -4.38 -4.95 -4.05 1.44 -0.83 0.19 0.73 1.16 6.21 6.69 7.15 8.84 10.60 10.49 9.05 7.22 4.98 4.00 7.21 9.81 13.97 16.35 17.63 16.68 12.03 9.03
5.60 6.65 5.67 5.67 6.54 5.46 4.89 2.56 0.69 -0.22 -0.38 -1.08 -1.13 -0.75 -10.71 -3.00 1.21 -0.86 -1.58 1.78 4.51 4.45 5.82 5.58 6.78 7.82 6.88 6.50 5.67 5.18 5.60 6.26 8.79 9.38 11.00 16.77 18.41 19.34

GFSNE_sfc_wetblb_084.txt.gz
Wetbulb
55.50 55.16 54.51 54.88 55.60 55.12 54.90 54.34 52.41 48.88 49.83 51.37 52.39 54.41 54.85 54.85 53.50 53.77 52.99 51.32 48.65 48.27 48.57 49.75 51.24 52.62 53.38 54.12 54.95 55.55 56.67 57.43 58.20 58.56 59.08 59.31 59.90 60.27
56.60 55.60 55.26 55.85 55.72 56.09 55.66 54.85 54.12 53.44 50.39 52.12 52.85 53.80 54.75 55.20 55.12 54.59 54.65 51.49 48.94 47.22 46.85 47.36 48.22 49.68 50.52 51.12 51.80 52.75 53.64 54.53 55.28 56.26 57.23 57.74 58.64 59.05
55.99 55.70 55.48 56.04 55.97 55.84 56.09 55.71 54.89 54.10 51.46 52.95 54.44 55.48 53.20 54.44 54.86 55.08 54.89 54.55 54.18 47.90 46.56 46.57 46.22 46.47 47.28 47.84 48.59 49.56 50.59 51.67 52.54 53.67 54.81 55.97 57.62 58.07
55.75 55.55 55.31 55.72 55.46 56.04 55.34 54.87 54.59 54.84 53.40 51.42 53.71 53.93 52.67 54.89 54.43 54.92 54.56 54.41 54.81 51.66 48.40 47.20 46.84 45.90 45.26 45.44 45.67 46.11 46.84 47.58 48.47 49.56 50.87 52.58 54.04 55.58
55.71 55.88 55.47 55.64 54.89 55.20 54.85 54.53 54.75 54.48 54.27 52.68 52.41 54.47 54.69 55.04 53.60 53.16 53.89 54.44 54.34 51.96 48.17 47.07 46.95 47.05 46.52 45.83 45.63 45.40 45.14 45.25 45.21 45.98 46.82 48.20 49.25 49.82
55.96 56.00 55.94 55.36 55.13 54.95 54.51 54.42 54.22 53.81 53.65 52.70 52.67 53.09 54.02 55.07 53.60 52.66 52.32 53.10 52.64 54.47 52.15 50.37 49.04 48.06 46.48 45.40 44.57 44.63 44.57 45.10 45.35 45.23 42.41 39.80 39.64 40.73
54.25 54.59 55.03 54.30 50.55 52.47 55.06 54.51 53.83 53.05 53.08 52.81 52.28 52.51 52.51 52.17 51.79 53.07 52.40 53.17 54.00 54.45 53.37 53.86 52.03 51.62 49.33 44.10 45.21 44.27 43.72 44.02 43.30 40.93 39.02 37.96 37.57 37.93
54.44 54.40 54.40 48.78 48.66 44.78 44.94 46.36 51.78 53.78 51.93 51.69 51.77 50.82 51.23 52.18 53.29 52.70 52.14 50.88 49.31 52.87 51.42 50.73 41.79 40.69 41.73 42.68 42.79 41.68 40.72 40.26 40.08 39.75 38.97 38.05 37.19 36.81
54.59 54.34 53.77 53.94 48.29 52.58 46.36 42.02 42.87 42.42 44.66 52.66 51.75 51.53 51.46 52.59 52.04 51.79 51.33 50.98 50.79 41.33 37.36 33.39 36.29 35.40 38.30 38.87 38.95 38.89 38.71 38.64 38.38 38.06 37.54 37.55 37.32 36.99
54.44 54.55 54.03 54.26 53.87 52.01 52.31 51.34 49.74 47.30 38.59 41.72 43.06 40.03 34.58 34.30 38.19 42.17 40.20 33.13 33.64 31.75 32.68 31.89 32.21 31.16 32.71 32.66 34.73 35.21 35.06 34.73 34.75 34.53 34.53 34.19 33.64 33.33
51.59 36.96 36.83 38.14 36.81 38.46 41.66 45.75 40.33 31.68 32.64 33.31 32.97 32.05 32.06 32.09 32.98 36.57 33.66 35.83 31.98 27.21 27.93 30.95 28.51 29.43 29.41 29.07 31.68 33.66 32.62 32.35 32.29 32.12 32.14 32.29 32.24 31.59
33.21 32.95 33.22 33.79 34.27 35.55 38.18 39.03 32.44 29.85 29.24 29.04 29.10 29.09 29.60 29.57 30.06 28.92 30.46 29.60 28.30 25.29 26.79 26.95 27.22 27.94 25.89 28.86 28.08 28.63 28.69 29.49 29.85 30.09 30.23 29.88 29.44 29.26
31.38 30.61 31.39 32.10 32.61 32.80 32.94 32.98 31.57 30.32 29.13 28.08 27.18 26.77 26.51 26.21 26.37 26.60 26.50 26.88 24.15 21.98 25.99 27.75 25.02 26.24 26.20 25.54 27.00 27.32 27.27 26.91 26.97 27.19 27.43 27.48 27.85 27.13
27.98 28.40 28.81 29.63 29.36 29.17 28.74 29.21 28.85 27.71 26.44 24.49 23.39 22.90 23.11 23.33 25.04 24.90 25.50 25.57 25.59 23.66 24.92 26.45 23.89 24.06 23.39 22.78 22.49 25.57 25.28 26.57 26.39 25.44 25.79 26.08 25.82 25.60
27.12 26.92 26.91 26.60 25.79 25.42 25.95 25.40 24.90 24.24 22.77 20.84 20.02 20.30 21.58 23.01 24.52 24.90 25.50 24.94 23.08 22.90 22.88 22.52 22.68 23.09 22.47 20.99 20.18 20.48 19.82 22.10 22.14 20.57 20.96 20.94 20.68 22.13
23.15 22.22 22.72 22.56 20.78 21.05 21.69 22.15 21.84 21.76 21.06 20.25 20.11 20.98 21.44 20.59 20.10 21.97 20.54 21.88 19.32 18.01 20.91 21.16 21.04 20.79 18.52 19.01 18.85 17.81 17.58 15.63 18.28 18.13 18.41 19.20 20.05 21.08
21.30 20.77 19.54 19.15 18.34 18.52 18.51 18.56 19.09 19.33 18.16 18.55 18.31 18.21 18.17 17.52 17.08 18.36 18.24 17.63 15.84 15.10 15.04 17.00 18.89 19.33 19.46 18.34 16.53 15.63 15.23 14.80 16.09 16.71 16.93 16.12 17.93 19.09
18.94 16.66 15.65 16.14 16.12 16.49 15.95 15.52 15.78 15.65 16.37 16.73 16.62 16.23 15.13 14.72 14.42 15.03 15.70 14.98 13.65 13.53 13.09 13.79 14.29 13.67 14.30 15.52 17.97 14.09 13.84 12.94 14.79 15.26 15.51 13.09 13.50 16.95
14.84 14.05 13.96 14.48 15.07 15.28 14.76 14.36 13.15 13.81 13.90 13.10 12.94 13.18 13.52 13.08 12.49 11.98 12.37 12.78 11.75 11.93 11.93 12.80 11.69 9.46 5.61 4.15 11.89 16.68 12.00 12.70 12.92 12.67 13.41 13.26 12.93 15.19
12.79 11.67 11.76 12.38 12.66 12.18 11.82 10.97 10.12 9.93 9.49 9.44 8.91 8.60 9.65 10.56 9.82 9.51 9.68 8.91 9.58 10.12 10.04 10.71 10.10 9.45 7.20 5.74 6.88 10.90 15.67 12.72 12.18 12.09 12.34 14.46 15.97 17.68
9.10 8.77 8.48 9.03 9.09 9.30 7.81 7.52 6.49 5.73 4.75 4.41 4.68 5.80 5.62 8.07 7.12 7.51 7.82 7.40 7.60 8.47 7.05 7.39 9.45 12.53 12.06 11.76 5.96 6.46 10.72 15.13 15.22 12.78 12.89 11.74 11.59 12.76
6.16 6.36 6.15 6.05 5.35 5.64 2.61 2.25 3.56 3.04 3.18 3.93 2.80 1.03 0.92 5.02 3.82 4.33 4.73 5.40 6.18 6.55 6.87 8.55 10.26 10.25 9.44 7.44 5.52 6.10 8.78 11.08 13.37 15.26 16.20 15.37 12.43 8.88
1.76 3.48 2.34 0.84 2.61 1.44 2.60 0.17 -2.39 -1.94 -1.11 -1.14 -0.58 0.26 -3.61 0.36 2.01 2.11 2.72 4.33 5.37 5.31 5.67 5.68 7.02 8.23 7.05 7.11 5.86 6.20 5.61 7.17 9.17 9.50 11.86 16.09 17.57 18.62

GFSNE_sfc_wetblb_087.txt.gz
Wetbulb
58.63 58.53 58.09 57.67 58.94 58.37 58.62 58.64 56.27 53.05 52.90 56.42 55.29 55.38 55.62 55.44 54.98 57.91 57.56 53.01 49.28 48.78 49.08 50.27 51.61 52.82 53.53 54.22 54.92 55.82 56.91 57.83 58.44 58.84 59.11 59.74 60.44 60.91
57.29 56.24 56.04 57.76 57.84 57.84 58.74 58.83 58.19 56.19 52.62 57.09 54.74 55.71 56.37 56.66 56.17 56.39 57.14 52.70 49.64 47.36 46.83 47.47 48.71 49.97 50.64 51.32 51.92 52.74 53.80 54.63 55.53 56.23 56.70 57.40 58.42 59.04
56.68 56.27 55.91 56.43 55.99 55.95 56.23 56.29 57.13 56.66 54.00 54.44 56.57 55.50 54.90 56.14 56.25 57.16 56.40 56.42 56.71 48.46 46.95 46.83 46.42 46.48 47.39 48.06 48.78 49.77 50.55 51.59 52.51 53.35 54.37 55.39 56.46 57.51
56.43 56.32 56.04 56.23 55.89 56.37 56.07 55.67 55.40 55.70 54.45 53.82 57.91 59.43 58.91 59.36 59.85 59.08 58.07 58.92 59.34 54.01 48.64 47.47 47.10 46.39 45.93 45.95 46.09 46.46 47.01 48.07 48.63 49.84 50.93 52.58 53.90 55.06
56.23 56.07 55.86 56.36 55.77 57.76 58.38 57.46 56.41 56.22 56.64 55.62 56.40 59.11 59.40 60.21 58.95 59.37 59.14 60.38 60.03 54.34 48.85 46.95 46.90 47.17 46.60 46.07 45.84 45.87 45.91 45.77 45.53 45.80 46.67 47.33 48.61 50.11
57.23 57.95 58.23 57.83 58.03 58.00 56.48 55.99 55.19 55.16 55.27 54.37 53.94 54.41 56.32 59.10 58.81 57.84 57.71 59.54 58.71 58.43 54.24 51.04 50.21 49.04 46.65 46.35 45.96 45.65 45.37 45.48 45.39 44.92 44.51 43.42 43.38 44.93
57.59 58.03 59.41 57.49 51.58 54.73 58.05 58.65 58.39 56.82 55.70 55.46 54.38 54.78 54.45 54.94 55.25 56.78 54.61 55.68 58.52 57.63 56.92 57.01 57.62 57.61 55.04 46.81 47.98 45.43 44.72 44.33 44.44 44.47 44.20 42.08 40.58 41.62
57.23 58.41 58.50 50.67 50.46 45.04 45.15 46.35 52.54 55.96 54.57 53.70 53.08 52.23 52.72 53.39 54.20 53.55 53.24 52.32 50.60 56.99 55.30 54.15 42.69 39.39 39.86 40.01 39.58 39.73 40.07 40.48 40.24 39.65 38.82 38.43 37.69 37.52
56.44 55.95 55.53 55.52 50.69 55.72 48.10 42.65 43.27 41.99 42.78 50.72 52.00 52.53 52.17 51.07 49.15 51.43 52.45 52.88 51.13 37.93 39.39 35.78 35.27 32.35 34.17 35.15 36.52 36.70 36.41 36.27 36.11 35.75 35.60 34.95 34.58 33.96
48.48 42.80 43.85 44.95 39.30 40.02 44.66 48.95 45.68 33.93 35.06 36.87 35.39 33.98 32.95 34.41 36.53 38.92 38.54 34.01 33.81 32.46 33.29 32.58 32.14 30.32 32.08 33.24 34.29 34.59 34.28 34.14 34.37 34.23 34.14 33.74 33.62 33.44
35.68 34.94 35.10 35.54 34.71 35.88 39.45 39.88 32.27 31.33 33.48 33.58 32.70 31.81 31.32 31.15 31.35 36.75 35.10 34.90 33.47 30.12 28.66 31.70 30.26 28.71 28.79 28.46 31.47 32.00 31.94 32.10 32.09 31.99 31.77 31.64 31.52 31.84
31.90 31.83 32.37 32.94 33.15 34.24 36.81 37.90 32.64 31.16 31.49 29.62 28.74 28.40 28.87 28.12 28.99 29.14 30.29 31.66 30.13 26.76 27.60 28.44 29.64 31.08 28.94 30.69 30.70 31.27 31.24 29.76 29.96 30.11 30.28 30.67 30.97 31.48
28.77 28.72 29.84 30.72 31.05 31.26 31.08 30.44 30.37 28.72 27.24 26.98 26.74 26.73 26.86 26.88 26.50 27.59 27.99 28.11 25.86 24.17 27.29 31.38 28.64 30.08 29.18 29.00 29.14 28.95 28.64 28.78 29.61 29.61 28.57 28.53 28.08 27.92
27.90 28.65 29.06 29.06 28.71 28.70 28.76 27.99 27.56 27.10 26.38 25.10 24.63 24.17 24.77 25.52 26.71 26.68 26.28 25.91 25.82 24.18 25.65 28.67 26.98 27.02 27.47 27.73 26.36 27.35 27.44 27.18 27.33 26.18 26.06 25.01 24.58 24.52
27.60 26.78 26.42 26.36 26.57 26.64 25.87 26.34 27.34 27.80 27.40 26.25 25.56 24.91 25.28 26.05 27.56 27.73 27.36 25.92 24.69 24.41 24.36 25.19 24.80 24.79 24.71 23.07 23.01 22.75 22.24 24.45 24.64 22.78 23.15 22.83 22.70 23.41
25.88 25.85 24.91 24.56 24.05 24.99 26.09 26.36 26.35 26.49 26.09 25.31 24.23 24.45 25.08 24.78 23.90 24.78 23.91 25.27 22.42 21.13 22.88 22.96 23.35 23.62 22.25 22.63 22.69 21.46 21.15 18.69 21.80 21.73 21.87 22.21 23.43 24.02
26.54 26.96 26.03 25.60 24.73 24.12 23.61 23.21 24.44 24.44 23.60 23.94 23.69 22.89 21.87 21.70 20.77 22.16 21.86 21.66 19.96 19.08 18.71 20.74 22.16 22.37 22.56 21.34 21.50 20.71 20.18 19.86 20.95 20.49 20.34 20.06 22.04 23.04
24.75 23.42 22.09 22.29 21.45 21.38 20.97 20.37 20.15 19.23 20.35 20.90 20.74 20.34 19.40 19.12 19.07 19.87 20.50 19.53 18.56 17.53 17.56 18.11 18.35 18.69 19.39 19.84 19.22 18.51 18.89 18.21 19.38 19.66 19.81 17.87 18.69 22.38
21.20 20.19 19.73 19.60 19.39 19.06 18.62 17.98 16.90 17.14 17.32 17.53 17.63 17.51 17.99 17.68 17.76 16.88 17.51 17.48 16.87 17.02 16.98 17.00 16.27 14.93 13.46 12.22 17.51 17.26 16.15 16.99 17.62 17.96 19.22 19.04 18.11 20.22
18.52 17.78 17.42 17.52 17.19 16.50 16.06 15.62 15.38 15.23 14.95 15.07 14.99 14.84 15.84 16.08 15.56 15.17 15.11 14.25 15.48 15.51 15.56 15.75 14.56 13.52 12.38 11.42 12.05 16.41 17.09 15.69 16.29 15.84 17.22 19.49 20.86 21.13
15.09 14.65 15.18 14.97 14.58 14.21 13.82 13.16 12.43 11.90 11.86 12.20 12.33 12.32 13.15 14.34 13.21 13.50 13.79 10.47 12.09 13.74 12.82 13.02 14.18 13.45 16.41 16.82 13.76 14.64 17.52 18.13 17.30 15.72 16.45 16.48 16.96 18.41
13.06 12.46 12.48 12.67 12.73 12.68 12.14 12.12 11.74 10.87 10.54 10.82 10.54 10.50 11.54 12.45 11.71 11.17 11.37 11.89 12.18 12.53 12.81 14.33 15.17 15.49 15.20 12.96 12.11 12.86 15.49 17.32 18.44 18.32 18.21 17.02 15.33 13.42
10.69 11.12 10.92 10.79 11.19 10.35 10.18 9.58 7.89 8.17 7.04 7.16 8.04 8.52 8.13 9.41 10.18 10.77 10.78 10.84 10.94 10.90 10.95 11.53 13.21 14.18 13.08 12.81 11.59 13.01 12.58 13.37 15.62 16.98 18.37 19.81 19.41 19.69

GFSNE_sfc_wetblb_090.txt.gz
Wetbulb
61.18 61.34 60.77 60.99 61.37 61.42 60.50 58.90 56.59 53.24 53.77 57.88 58.89 60.71 60.54 60.45 58.42 60.09 60.27 54.68 50.16 49.06 49.29 50.34 51.65 52.86 53.47 54.09 54.78 55.52 56.64 57.42 58.20 58.66 58.99 59.79 60.42 60.97
58.21 59.58 59.00 60.18 60.94 60.89 60.09 59.42 59.02 56.98 54.14 58.20 59.21 61.11 61.14 56.94 57.71 56.99 58.04 53.60 50.97 48.42 47.43 47.99 48.90 50.48 51.21 51.62 52.10 52.69 53.62 54.44 55.31 56.01 56.62 57.50 58.41 59.14
57.65 58.91 58.53 59.43 58.27 59.16 59.41 58.69 56.55 57.85 53.83 57.38 60.37 61.38 60.90 60.65 60.74 59.09 57.60 59.06 60.46 49.58 47.81 47.00 46.70 46.84 47.74 48.38 48.92 49.81 50.69 51.51 52.33 53.27 54.38 55.32 56.55 57.55
58.02 57.00 56.93 57.36 56.93 56.82 56.33 56.01 56.01 56.41 54.70 53.24 55.81 56.33 56.36 58.02 59.37 60.90 61.32 61.13 61.79 55.50 49.88 48.21 47.12 46.38 45.77 45.73 46.31 46.44 46.82 47.83 48.38 49.49 50.55 52.13 53.66 54.91
57.50 58.10 57.75 57.15 56.25 56.22 55.70 55.32 55.95 58.06 57.49 56.84 57.19 58.98 60.41 61.74 61.66 61.89 61.98 62.89 62.57 56.07 49.00 47.13 47.01 46.83 46.56 46.05 45.96 45.73 45.92 45.76 45.60 45.58 46.05 46.67 48.27 49.93
57.32 57.28 57.36 56.84 56.58 56.47 56.52 57.18 56.59 56.74 56.96 55.32 54.83 56.13 57.99 60.79 61.05 59.74 59.72 61.84 60.50 60.92 56.77 53.08 51.83 49.32 45.99 44.28 44.33 44.92 45.23 45.18 45.25 44.91 44.11 42.99 42.37 44.14
59.73 59.00 59.27 56.15 51.75 55.01 59.50 58.77 58.71 58.60 58.48 58.32 56.82 56.67 57.05 57.91 57.05 58.10 56.11 57.09 58.55 60.98 58.95 58.06 46.83 43.95 41.36 40.67 41.38 41.28 41.97 43.15 43.06 43.43 41.61 39.94 39.33 40.15
58.54 59.04 59.62 51.88 52.38 45.70 45.64 46.29 52.40 58.38 56.23 55.76 54.64 53.46 53.77 54.42 54.89 54.23 53.87 53.04 51.95 44.69 46.90 41.52 37.88 35.14 36.25 37.04 37.53 37.80 37.87 38.08 38.02 38.12 38.07 37.63 36.66 36.17
57.19 56.92 56.71 56.39 50.25 55.91 47.31 43.08 42.97 37.16 38.16 46.63 49.35 50.54 45.31 38.64 39.59 42.51 42.32 39.84 38.05 36.87 38.64 35.20 35.33 32.73 34.26 35.25 35.85 35.80 35.72 35.71 35.58 35.10 34.83 34.64 34.33 33.96
38.76 39.52 42.19 41.70 37.51 39.00 43.61 40.04 35.26 34.05 34.75 35.19 33.75 31.73 31.69 32.35 34.08 38.04 39.08 37.29 34.39 32.61 32.68 35.84 32.76 29.73 32.08 32.43 33.47 33.87 33.79 33.79 34.06 33.93 33.57 33.52 33.39 33.24
33.59 34.03 35.11 34.44 34.12 35.97 40.69 35.78 32.06 31.16 32.51 32.13 31.64 31.17 30.76 31.08 32.79 38.08 33.98 35.47 35.66 29.43 29.42 32.23 30.96 29.07 30.14 30.77 31.86 31.88 31.34 31.65 31.71 31.60 31.68 31.81 32.22 32.92
30.87 31.24 31.97 32.18 32.43 34.08 39.77 35.08 30.80 30.41 29.37 29.77 29.43 29.58 30.72 29.86 29.77 31.13 35.15 32.13 31.71 29.76 30.00 30.51 31.65 32.64 30.06 33.84 32.93 33.62 34.50 30.33 29.96 29.96 30.21 29.72 29.38 33.62
28.73 28.58 29.93 30.92 31.06 31.42 31.34 30.69 28.99 29.50 29.21 28.89 28.65 29.22 30.29 29.95 29.89 30.69 31.11 32.97 32.18 29.78 29.74 33.54 32.77 33.80 33.19 32.13 32.22 32.13 31.56 30.57 31.17 31.43 28.96 27.20 26.58 26.37
29.63 29.88 29.78 29.28 29.63 29.55 30.09 28.87 29.21 30.38 31.57 30.83 30.47 29.76 29.87 29.78 29.89 29.48 29.10 29.31 29.30 28.74 29.91 31.97 31.12 31.27 31.30 30.75 30.06 32.21 32.89 32.68 30.23 29.37 28.97 27.11 26.16 25.91
29.93 28.63 28.54 28.88 29.02 28.91 28.43 29.61 30.83 32.89 32.20 29.77 28.64 28.41 28.63 29.09 31.11 30.76 30.56 30.21 28.54 27.66 27.29 28.89 29.19 29.31 29.77 29.26 28.57 29.21 25.46 29.35 29.73 27.32 27.42 27.26 26.95 27.73
29.00 30.58 28.94 28.62 28.37 29.16 30.21 30.39 29.67 29.19 28.68 28.25 27.98 28.88 29.76 29.08 28.02 28.72 28.16 29.38 28.27 27.04 27.21 26.63 27.15 27.37 26.49 27.30 26.90 26.21 26.77 24.10 26.94 26.69 26.23 26.30 27.46 28.13
31.29 31.40 30.24 30.03 28.89 28.74 27.86 27.22 27.51 28.07 27.39 27.56 27.39 27.06 26.51 26.66 25.57 26.84 26.40 26.96 25.25 24.08 24.26 25.60 26.46 26.30 26.24 24.63 24.59 25.33 24.34 24.40 25.84 24.84 23.97 23.62 25.60 26.90
29.45 27.62 26.34 26.68 26.08 25.85 25.42 25.05 24.51 23.34 24.15 24.61 24.88 24.47 23.93 23.25 23.61 24.44 25.02 24.34 23.13 22.85 22.87 23.38 23.71 24.27 25.43 23.87 20.78 22.55 23.44 22.92 23.92 24.05 24.25 22.49 23.31 26.90
26.70 24.91 24.45 24.29 24.30 23.67 23.10 22.67 21.56 21.38 21.86 22.32 22.16 22.03 22.46 22.48 22.11 21.77 21.92 22.38 21.76 22.01 22.29 22.56 21.60 20.39 19.21 18.63 22.96 18.50 19.69 20.64 21.16 22.02 23.11 22.62 22.23 24.25
24.19 23.20 22.41 22.39 21.80 21.25 20.91 20.43 20.26 20.38 20.07 19.98 19.88 19.89 20.44 20.82 20.36 19.86 19.67 18.34 19.68 20.18 20.75 21.77 20.42 18.37 16.76 16.57 17.12 21.03 21.88 20.12 20.19 19.68 20.46 22.38 24.34 24.86
20.63 20.16 20.63 20.41 20.16 19.85 19.42 18.82 17.69 17.33 17.28 18.02 18.03 17.48 18.32 19.12 17.90 17.97 18.72 15.08 14.96 18.71 17.76 18.47 19.24 16.14 20.00 21.17 19.10 19.85 22.35 22.48 20.62 19.13 19.66 19.44 20.04 21.76
18.94 18.26 18.32 18.42 18.10 18.34 17.99 17.61 17.90 16.61 16.30 16.54 16.14 16.47 16.39 17.69 16.73 16.09 16.46 15.96 16.97 16.90 17.47 19.16 20.20 20.11 19.20 17.56 16.55 17.01 20.19 21.99 22.67 22.46 22.04 20.89 19.09 16.74
16.80 17.17 16.87 16.56 16.93 16.43 16.26 15.67 14.03 14.76 13.25 13.38 14.11 14.00 13.58 14.29 14.86 15.97 15.67 15.67 15.84 14.94 16.28 16.29 18.18 19.34 18.06 17.91 16.50 17.78 17.94 18.86 20.52 20.98 23.49 23.44 22.65 22.64

GFSNE_sfc_wetblb_093.txt.gz
Wetbulb
61.45 62.02 60.68 60.79 62.16 62.52 61.64 60.01 57.79 53.14 53.93 58.64 58.71 62.59 62.65 63.08 60.79 62.55 62.22 55.00 49.88 49.51 49.35 50.30 51.93 53.23 53.61 54.12 54.81 55.58 56.62 57.26 58.04 58.35 59.00 59.69 60.19 60.73
60.72 60.40 59.73 61.16 61.25 61.63 60.82 60.84 60.06 57.25 53.52 57.79 59.13 60.90 61.72 58.97 58.85 61.58 61.77 54.98 50.10 48.20 48.14 48.39 49.16 50.68 51.39 51.85 52.40 53.09 53.78 54.71 55.48 56.09 56.65 57.37 58.33 58.96
57.40 57.38 57.82 58.81 59.86 61.01 60.31 58.71 59.76 58.68 55.79 57.68 59.61 60.86 58.43 61.00 60.95 60.81 60.36 60.97 60.83 49.44 48.39 48.09 47.45 46.88 47.40 48.35 49.04 50.11 50.97 51.92 52.61 53.30 54.22 55.40 56.46 57.16
55.91 56.84 57.12 58.05 58.56 58.64 60.38 58.95 58.98 58.66 56.29 54.20 56.75 55.87 56.37 57.79 59.06 61.37 60.93 60.92 60.40 55.86 49.72 48.43 47.68 46.75 46.65 46.42 46.37 46.44 47.20 47.78 48.10 48.93 49.90 51.15 52.04 53.15
55.34 57.33 57.03 58.17 58.31 58.48 58.45 56.71 56.69 56.04 55.30 54.18 53.79 57.56 58.86 60.34 59.87 59.96 60.25 61.60 62.27 55.82 50.12 47.53 48.09 48.36 45.55 43.91 44.21 44.52 44.84 44.82 44.74 44.81 45.06 45.69 46.90 48.42
56.00 57.42 58.02 58.13 57.93 58.32 57.06 56.50 55.55 54.73 55.13 55.12 53.99 54.85 56.85 59.53 59.36 58.66 58.84 61.02 60.79 61.52 56.53 45.46 44.81 41.82 41.00 41.84 41.67 42.35 42.73 43.14 43.95 43.99 42.98 41.60 41.10 42.57
55.56 57.58 58.19 56.92 51.23 54.51 57.16 57.38 57.03 55.85 56.87 55.76 55.24 56.50 57.40 58.09 58.06 59.15 56.94 57.34 57.00 48.32 50.67 42.13 42.16 39.85 38.47 38.96 39.17 39.29 39.73 39.85 40.56 39.98 39.38 38.53 37.97 38.51
55.70 56.87 58.81 50.48 50.13 45.71 45.90 45.48 48.55 54.89 55.97 55.38 55.08 54.36 54.99 55.26 53.37 50.48 49.70 50.63 49.35 39.59 43.26 38.68 38.10 34.60 35.12 36.26 36.83 36.81 36.93 36.91 36.79 36.86 36.74 36.21 35.60 35.32
50.16 49.42 54.51 46.70 43.13 48.49 45.49 38.48 36.08 35.78 36.31 44.52 47.75 44.12 40.65 35.09 36.78 40.84 43.61 42.35 41.43 34.51 37.99 36.75 35.44 32.29 33.98 34.41 35.22 35.16 35.00 35.01 34.91 34.78 34.54 34.22 33.98 33.79
37.46 38.93 39.75 38.99 36.48 39.02 43.96 36.47 33.25 32.77 33.30 33.95 33.02 31.82 31.82 32.80 34.21 36.65 37.12 35.55 34.10 32.47 32.90 34.28 32.81 30.33 32.23 32.67 33.35 33.49 33.50 33.25 33.25 33.21 33.22 32.95 33.17 33.32
33.47 33.97 33.76 33.42 34.12 36.57 39.63 33.34 31.71 30.60 32.35 32.76 32.32 31.84 31.64 31.93 33.27 39.86 35.46 36.32 35.00 31.03 31.28 32.78 32.03 30.57 31.37 31.92 32.83 31.50 31.44 31.25 31.42 31.79 31.41 31.15 30.49 32.14
31.00 31.19 32.10 32.43 33.34 36.21 35.35 32.59 29.04 29.03 30.18 30.42 30.31 31.10 31.46 31.80 31.46 32.17 34.60 33.96 34.21 32.86 31.53 31.78 33.77 33.98 31.77 34.37 34.46 34.84 34.34 30.79 30.38 29.89 29.52 29.00 28.51 29.65
29.24 29.05 30.76 31.42 32.08 32.41 31.99 30.25 29.00 30.14 30.09 31.17 31.58 32.41 32.76 31.96 31.83 31.70 32.27 30.89 31.99 29.57 30.68 31.99 32.26 33.08 32.90 32.42 33.48 33.14 32.79 32.93 32.75 32.70 31.16 29.23 27.56 27.06
29.01 29.71 30.60 30.71 30.99 31.41 31.69 31.05 31.19 32.26 33.19 32.81 31.82 30.00 29.65 29.95 30.91 31.26 31.55 31.43 30.13 29.28 30.93 32.42 30.46 30.29 30.03 30.45 30.76 33.18 33.38 33.08 31.97 30.18 29.78 29.78 29.75 29.56
30.63 30.16 30.22 30.19 30.44 29.96 29.97 30.41 31.37 32.70 31.96 30.74 29.43 28.94 30.26 31.20 33.24 32.72 32.90 32.98 31.09 29.26 28.70 29.15 28.64 28.71 29.61 27.92 27.62 28.51 27.25 29.34 30.39 29.01 28.97 28.33 27.97 29.37
30.80 31.74 30.37 29.68 29.64 29.96 30.87 31.00 31.03 30.68 29.88 28.84 28.76 30.24 31.19 30.17 28.94 29.75 29.26 29.43 29.28 28.68 29.55 28.62 28.03 27.44 25.92 26.85 26.81 26.61 27.53 24.76 27.66 27.66 27.14 27.31 28.26 29.59
32.24 31.99 30.98 30.38 29.34 29.41 28.70 28.48 28.38 28.75 27.91 28.26 27.93 27.75 27.33 27.47 26.88 27.81 27.28 27.70 26.32 24.99 25.66 26.72 28.07 28.36 26.82 24.71 23.34 25.43 25.14 25.07 26.21 25.47 25.01 24.72 27.48 29.18
29.71 27.83 27.33 27.94 26.99 26.56 26.28 25.52 25.27 24.51 25.32 25.60 25.80 25.47 25.00 24.41 24.65 25.34 25.83 25.25 24.15 24.15 24.05 24.55 24.46 24.15 26.01 24.40 21.67 22.31 22.78 22.61 23.42 23.73 24.42 23.52 23.66 27.42
26.63 25.87 25.28 25.54 25.42 24.94 24.45 23.92 22.92 22.81 23.79 23.71 23.24 23.15 23.71 23.87 23.53 22.97 22.90 22.81 22.80 23.09 23.54 24.06 22.76 20.67 18.16 18.07 23.99 22.67 20.81 21.68 21.56 21.77 22.50 22.41 22.05 24.05
25.01 23.98 23.47 23.58 23.31 22.47 22.16 21.61 21.26 21.69 21.66 21.70 20.99 21.12 21.22 21.95 21.23 20.77 21.33 18.65 18.63 20.81 21.47 22.98 21.84 19.26 15.69 15.85 16.94 21.67 25.21 21.64 21.21 20.12 20.42 22.35 23.89 25.44
22.40 21.97 22.46 22.26 21.90 21.71 21.33 20.97 19.70 19.24 19.18 19.61 19.73 18.90 19.41 20.09 19.29 18.75 19.26 17.89 17.61 19.92 18.38 19.33 20.84 18.82 20.94 21.85 19.31 20.11 22.89 24.94 22.76 21.32 20.98 19.91 19.63 20.99
21.09 20.43 20.37 20.18 19.88 20.14 19.80 18.90 19.54 18.23 17.32 17.78 17.47 17.61 17.21 18.34 17.33 17.45 17.63 16.79 17.56 17.74 17.88 19.99 21.57 21.46 20.23 18.44 17.23 18.36 19.82 23.62 25.00 25.27 25.24 23.39 20.03 16.94
19.05 19.22 18.84 18.32 18.70 18.35 18.61 17.48 16.03 16.29 15.28 15.09 15.50 14.89 15.19 15.76 16.33 16.80 16.81 16.73 16.90 16.10 16.83 16.36 18.14 20.20 19.25 19.06 18.09 18.66 18.69 20.60 21.11 21.66 23.35 25.54 25.22 25.21

GFSNE_sfc_wetblb_096.txt.gz
Wetbulb
59.27 59.37 58.45 58.71 58.99 58.64 58.06 56.95 54.25 50.55 50.71 55.95 55.72 58.43 59.11 59.31 58.45 58.33 58.20 53.20 49.57 49.33 49.55 50.83 52.63 53.62 54.13 54.76 55.43 56.15 56.95 57.58 57.94 58.42 58.93 59.53 60.22 60.64
59.62 58.80 57.95 57.92 57.97 58.22 58.00 58.16 56.83 53.71 50.32 54.24 55.41 58.17 59.02 59.75 58.26 58.56 59.39 54.60 50.36 48.49 48.39 48.65 49.70 51.14 51.89 52.42 52.83 53.16 54.11 54.82 55.47 56.02 56.75 57.26 58.16 58.69
58.37 57.68 57.36 57.52 57.32 57.32 57.37 57.66 56.55 54.56 51.95 53.85 55.45 56.76 56.45 56.90 57.85 56.84 57.64 58.56 58.54 50.05 48.40 47.85 47.43 47.64 48.05 48.31 48.94 50.11 50.94 51.76 52.39 53.09 54.01 55.27 56.22 56.68
56.56 56.21 56.15 57.39 56.20 56.04 56.95 56.47 55.57 56.05 54.13 52.47 54.62 54.13 55.04 55.92 56.55 57.80 58.47 59.10 58.22 54.13 49.67 48.19 47.83 46.79 46.29 44.37 44.81 45.10 45.77 46.72 47.02 48.17 49.22 50.27 50.92 51.70
55.61 55.41 55.69 56.02 55.47 55.81 55.79 56.22 55.98 55.79 55.63 52.97 52.59 54.85 55.23 55.82 55.74 56.72 56.86 57.85 59.20 54.99 49.79 43.66 42.81 42.29 42.33 41.96 42.39 43.17 43.39 43.53 43.99 44.37 44.26 44.18 44.96 46.11
54.01 54.15 54.33 55.31 54.83 55.60 55.75 55.88 54.72 54.70 54.19 53.36 53.02 52.86 52.89 54.57 55.13 54.53 54.70 57.00 57.39 59.40 45.18 43.08 41.60 40.79 40.40 40.19 40.48 40.68 40.82 41.74 41.00 40.40 39.25 38.68 39.30 40.94
54.42 55.10 55.71 53.84 50.43 52.96 56.09 55.35 54.22 54.06 53.54 53.04 52.67 53.04 52.91 53.41 53.96 55.76 55.22 55.24 46.01 43.94 49.29 41.47 39.54 38.20 37.79 38.41 38.72 38.83 38.66 38.87 38.79 38.61 38.20 37.48 36.88 37.31
52.74 53.47 54.33 48.89 48.98 45.81 43.71 37.71 42.45 52.22 54.30 53.56 53.73 53.50 53.13 44.98 44.11 44.62 45.04 45.92 46.01 37.63 41.17 39.26 37.65 34.36 34.80 35.72 36.71 36.64 36.60 36.55 36.58 36.39 36.24 35.94 35.36 34.82
50.00 50.77 49.44 43.86 43.86 46.38 36.57 35.54 34.77 34.97 35.61 44.87 47.78 38.46 39.52 35.11 36.28 39.84 41.85 41.48 40.41 34.00 36.90 34.47 34.40 31.59 33.83 34.97 35.44 35.34 35.10 34.97 34.77 34.57 34.19 33.90 33.87 33.97
37.22 38.34 39.30 38.44 36.33 42.93 36.92 33.58 32.39 32.62 32.89 33.65 32.90 31.84 31.75 32.52 34.36 37.00 36.63 34.53 33.23 32.03 32.66 32.67 32.16 30.23 32.12 33.08 33.71 33.52 33.17 33.05 32.98 32.82 32.26 31.61 31.03 31.51
33.09 33.99 34.13 34.52 35.44 39.92 35.16 31.85 30.07 29.96 33.05 33.43 33.19 32.73 32.58 32.86 33.93 37.32 33.38 33.59 32.14 30.09 29.94 31.18 30.41 29.32 30.03 30.19 31.25 32.14 31.85 31.67 31.31 30.97 30.56 30.30 29.63 29.36
31.42 31.73 33.08 33.49 35.73 35.40 33.19 31.47 29.08 29.06 29.94 30.40 31.14 31.54 31.74 30.98 31.53 30.46 31.38 32.27 32.06 30.06 27.59 29.84 31.32 31.84 30.48 32.10 32.13 32.33 30.32 31.63 32.05 31.48 30.27 29.25 29.13 24.29
29.48 30.17 31.28 32.28 32.61 32.87 32.57 31.26 29.43 30.74 30.93 31.39 30.98 30.73 30.09 29.67 26.86 26.26 26.55 27.09 28.93 26.33 28.01 30.35 30.25 30.33 30.68 30.39 31.53 28.89 25.67 25.88 25.91 27.67 31.63 31.05 30.61 28.83
28.17 29.25 30.49 31.59 31.66 32.13 31.68 32.06 32.24 32.24 31.69 30.05 28.43 27.96 28.20 29.01 24.05 24.45 24.14 24.05 23.26 23.52 24.21 25.68 25.24 26.05 26.34 26.23 28.53 28.97 26.38 24.20 24.99 24.34 24.03 27.68 28.77 28.92
29.96 30.60 31.06 30.96 30.65 29.52 30.30 30.54 30.67 30.70 29.82 28.17 27.52 27.72 27.55 23.98 26.09 26.67 27.79 27.41 25.73 25.45 26.53 24.76 22.51 23.14 22.29 21.61 21.22 21.88 23.23 23.24 23.58 22.42 22.69 21.96 21.45 21.83
29.68 29.54 29.14 28.92 28.92 28.59 28.33 28.99 28.74 28.78 28.11 27.60 27.53 25.56 24.24 23.88 23.07 23.88 23.41 24.44 24.34 23.25 26.37 25.11 24.24 23.30 20.82 21.06 21.02 21.05 21.80 19.27 21.26 21.42 21.75 21.20 21.90 22.44
29.79 29.45 28.33 27.69 27.06 26.13 24.06 23.62 23.43 23.71 23.13 22.35 21.80 22.06 22.31 22.61 22.62 23.07 23.45 22.99 20.42 19.76 20.39 22.29 23.62 23.72 23.50 21.89 19.39 19.83 18.66 18.99 19.44 20.61 20.69 20.09 21.68 21.73
27.24 25.70 25.05 24.88 23.53 22.73 21.74 20.33 20.18 19.92 21.13 21.58 20.13 21.42 21.38 20.78 21.81 22.47 22.40 20.88 19.29 19.81 19.42 19.27 19.31 19.65 21.27 21.42 22.74 19.35 18.19 17.76 18.86 20.50 20.82 18.21 18.20 20.86
24.17 23.41 22.50 21.84 20.83 20.75 20.41 19.08 17.85 18.39 20.36 19.32 18.57 18.17 19.47 20.40 19.23 19.67 18.91 18.34 17.29 18.45 18.49 18.82 18.18 14.08 8.51 5.94 19.37 23.62 17.67 18.92 18.58 17.88 18.82 18.03 16.77 18.70
22.17 21.02 20.31 20.35 19.91 19.22 18.41 17.47 16.81 16.21 16.36 17.34 13.91 13.62 14.25 16.31 14.50 15.79 16.73 11.29 14.74 16.81 17.88 18.47 16.62 15.36 8.18 3.42 6.27 15.94 24.75 19.20 15.77 13.66 16.28 18.92 19.91 23.62
18.95 18.80 19.05 18.85 18.63 17.91 17.22 17.33 12.38 11.04 10.67 9.31 12.24 12.81 10.22 14.59 12.24 13.39 13.27 10.81 10.53 16.07 14.57 15.29 17.07 16.81 17.26 15.89 6.31 10.67 16.31 24.55 23.77 19.80 17.95 16.40 16.15 17.42
18.08 17.34 17.42 17.22 16.66 16.74 14.54 12.70 13.76 11.51 11.72 13.03 9.34 7.52 6.94 10.70 7.84 9.10 10.04 8.09 13.02 12.37 13.85 16.30 17.94 17.89 17.43 15.71 12.19 7.71 14.36 15.20 22.57 25.10 25.15 23.86 18.42 14.04
15.87 15.77 14.98 14.13 14.62 13.48 14.90 12.30 11.08 11.61 10.26 9.76 9.53 9.04 5.35 9.79 10.31 9.49 9.13 10.11 11.99 12.04 13.20 11.48 13.26 14.73 14.87 15.70 13.64 14.11 13.43 13.44 18.49 16.84 17.77 23.32 24.06 24.74

GFSNE_sfc_wetblb_099.txt.gz
Wetbulb
59.01 58.96 58.58 58.62 57.89 58.12 56.65 56.30 54.00 50.58 51.79 55.23 55.43 57.86 57.70 57.27 56.94 56.58 56.05 51.68 49.24 48.73 49.23 50.65 52.45 53.60 54.11 54.84 55.59 56.43 57.31 58.03 58.56 58.63 59.00 59.51 59.91 60.40
59.07 58.76 58.71 58.61 57.78 57.99 57.27 56.57 55.77 52.54 50.69 54.15 55.29 56.81 58.39 59.14 56.67 57.71 57.50 53.50 50.11 48.19 48.05 48.41 49.79 51.22 51.95 52.45 52.70 53.17 54.13 54.84 55.55 56.12 56.59 57.16 57.83 58.25
58.88 58.44 58.17 57.57 56.66 55.90 56.14 56.34 54.78 53.59 51.67 53.28 53.82 55.68 55.67 56.55 56.46 57.16 57.71 57.65 57.49 48.77 47.77 48.06 47.70 48.44 49.19 48.17 48.65 49.19 49.85 50.91 51.87 52.88 53.73 54.64 54.68 55.13
58.14 58.02 57.67 57.21 56.07 56.02 55.54 55.09 55.02 54.76 53.31 51.65 53.25 53.10 53.37 56.15 56.52 55.41 56.79 57.83 57.40 53.54 49.53 48.70 45.75 46.00 44.49 43.68 44.14 44.80 45.29 46.02 46.35 46.92 47.39 48.05 49.08 49.86
57.98 57.64 57.39 56.86 55.45 55.12 54.96 55.29 55.59 55.15 54.45 52.70 51.99 54.46 54.73 54.87 54.54 54.64 55.86 56.84 57.62 50.45 42.35 42.24 42.08 41.89 41.63 41.90 42.08 42.42 43.01 43.16 41.86 41.26 41.13 41.90 43.27 44.53
56.69 56.87 56.60 56.03 55.21 55.49 55.08 54.82 55.11 54.80 54.38 53.34 51.25 51.66 52.69 53.33 53.95 52.39 51.95 54.90 53.90 48.14 43.03 41.14 40.73 40.72 40.57 40.52 40.61 40.75 40.91 40.93 40.36 39.68 38.74 37.82 38.39 39.53
54.86 55.15 55.17 53.17 49.57 51.73 55.55 55.11 54.76 54.30 53.82 52.70 51.39 50.84 50.77 51.80 52.15 52.94 52.17 52.13 43.07 45.13 43.14 41.02 39.19 37.98 38.15 38.68 38.89 38.75 38.75 38.77 38.62 38.29 37.61 36.66 36.21 36.53
53.09 54.06 55.13 49.60 48.67 42.14 39.71 38.48 45.67 53.44 52.09 51.18 50.49 49.63 51.12 46.37 44.63 45.60 46.65 46.94 45.57 37.34 42.36 36.56 36.79 34.25 35.69 36.66 37.21 36.99 36.80 36.73 36.46 36.13 35.67 35.27 35.00 34.75
51.92 52.80 52.59 44.38 45.60 40.97 36.29 35.77 34.69 34.93 36.26 47.06 50.89 42.59 41.86 37.10 37.63 40.68 43.28 42.51 39.58 33.39 36.67 32.86 34.08 31.81 34.50 35.73 35.70 35.20 34.88 34.68 34.56 33.77 33.03 32.15 31.52 32.28
36.69 38.32 40.43 39.25 39.43 39.81 36.23 33.51 32.65 32.82 32.97 33.60 32.71 31.52 32.00 33.07 35.49 37.66 37.67 33.29 32.38 31.21 31.89 31.55 31.96 30.28 32.25 33.30 34.04 33.47 33.08 32.69 32.50 32.11 31.47 30.99 30.62 29.96
33.44 34.82 35.41 36.55 37.12 37.40 34.12 31.45 30.44 30.71 33.38 33.78 33.18 32.78 32.93 33.27 34.93 36.44 33.44 33.24 31.41 28.81 29.93 31.70 30.91 29.85 30.05 29.57 31.67 33.60 32.83 32.09 31.89 31.67 30.92 30.07 30.01 28.90
31.64 32.28 33.87 34.73 34.74 34.15 32.59 31.41 29.10 29.14 30.55 30.60 30.28 30.57 30.48 30.47 30.96 30.87 32.10 31.95 31.06 27.67 28.37 30.23 30.80 30.77 29.92 31.04 31.03 29.57 23.27 32.41 32.90 33.15 32.10 30.92 30.37 24.18
30.12 30.59 31.90 33.24 33.73 33.51 32.74 31.04 29.98 31.67 30.80 30.32 29.88 30.00 29.90 28.71 27.48 26.98 27.48 27.86 22.21 18.60 23.64 30.21 29.23 29.16 29.62 29.63 26.82 24.43 23.96 24.56 24.20 25.58 31.28 31.15 29.40 27.65
29.02 30.05 31.36 32.52 32.72 32.59 31.92 32.03 31.78 31.07 29.85 28.82 27.90 27.40 26.84 23.74 22.30 22.43 21.62 22.55 23.45 22.39 22.38 23.38 21.21 20.35 19.47 19.52 21.20 23.84 23.48 21.49 22.54 22.38 22.35 25.83 26.96 27.63
30.09 30.64 30.85 30.73 30.56 29.79 30.56 30.65 30.24 29.79 28.46 26.69 25.19 21.86 18.97 19.94 23.35 24.07 26.32 24.88 24.37 24.71 25.33 23.85 21.63 21.90 20.94 19.69 19.37 20.57 21.64 21.48 21.31 20.30 20.56 20.92 20.56 21.08
29.23 28.65 27.48 26.40 25.22 24.61 24.27 25.33 25.87 25.79 24.94 23.81 20.93 19.33 21.89 22.24 22.58 23.09 22.62 23.27 22.78 22.32 24.80 24.07 22.83 22.26 20.28 20.29 20.04 19.52 18.89 17.63 18.96 19.78 20.54 20.13 21.00 20.63
28.51 27.48 26.17 24.87 22.13 21.39 21.11 21.71 22.18 22.32 21.38 21.27 21.17 20.80 20.83 22.01 21.90 22.28 22.17 21.59 18.66 18.25 18.58 21.42 22.47 22.06 21.69 21.71 18.87 18.35 18.13 18.14 18.51 19.94 20.03 18.88 19.73 19.11
25.14 22.39 20.78 20.65 20.39 20.15 19.20 19.27 20.09 20.10 20.70 20.38 19.23 19.95 20.20 19.80 20.54 20.39 19.86 17.97 16.67 18.14 17.94 18.77 18.22 17.64 18.96 20.14 23.34 18.61 17.22 17.03 18.60 20.10 20.11 17.30 17.15 19.75
21.33 20.45 19.62 19.01 18.50 19.18 18.21 17.64 17.07 18.96 19.31 18.04 16.85 16.14 17.47 18.62 17.41 18.14 17.19 16.55 15.87 16.99 17.63 18.01 16.22 10.46 4.97 0.63 16.46 22.84 16.37 17.19 17.91 17.24 18.15 17.61 16.27 18.28
20.33 19.21 18.68 18.96 19.07 18.10 17.78 16.70 16.23 16.65 16.61 16.18 14.35 13.19 13.45 15.30 14.29 14.39 14.11 9.80 13.19 16.13 15.50 16.40 15.63 14.94 8.12 4.41 4.53 13.40 23.01 17.41 13.75 12.99 14.17 18.25 19.22 23.30
17.51 16.86 16.85 17.49 17.04 16.34 16.40 14.93 13.74 13.13 12.70 12.25 11.62 11.16 9.79 12.17 11.21 12.21 11.51 10.49 11.05 14.41 12.88 13.40 15.01 16.53 16.96 14.06 4.51 6.98 13.90 23.18 21.46 18.49 18.95 14.24 13.76 16.18
15.73 15.10 14.75 14.50 15.03 14.84 12.65 13.34 11.77 10.72 10.28 10.30 8.64 8.66 7.76 10.03 9.30 10.01 9.96 8.76 11.83 11.73 12.27 13.06 15.15 14.87 14.23 12.86 10.99 6.33 13.18 12.33 19.26 22.42 21.80 20.08 14.31 11.75
13.64 12.75 11.37 11.39 11.67 11.49 11.87 9.21 8.10 7.10 6.54 5.83 5.53 6.24 3.26 7.69 7.96 8.88 9.21 9.41 10.36 9.89 9.85 9.31 10.64 12.16 11.45 11.45 9.35 10.27 10.66 11.31 14.92 13.57 14.73 20.04 20.97 22.31

GFSNE_sfc_wetblb_102.txt.gz
Wetbulb
59.34 59.26 58.72 57.42 56.90 56.55 56.29 55.49 52.96 49.55 50.63 52.29 52.80 55.26 56.73 56.81 55.88 55.45 56.84 51.57 49.30 48.98 49.35 50.54 52.51 53.70 54.15 54.87 55.62 56.37 57.49 58.09 58.50 58.77 58.92 59.01 59.43 59.71
59.54 58.74 58.57 58.12 57.54 57.16 56.59 55.73 54.63 52.77 50.07 53.23 54.09 56.35 56.84 57.25 55.92 56.23 55.89 51.93 48.47 47.58 47.63 48.52 49.69 51.11 51.81 52.30 52.99 53.59 54.52 55.35 55.88 56.14 56.44 56.51 56.38 56.77
59.18 58.74 58.17 58.49 57.41 56.90 57.21 56.08 55.38 53.62 51.50 51.80 54.71 56.14 56.14 56.69 56.88 57.04 56.64 56.15 55.88 47.90 47.42 47.32 47.19 46.99 47.82 48.29 48.61 49.26 49.92 50.59 51.26 51.92 52.35 53.28 54.13 54.62
58.36 58.36 57.99 58.35 57.11 56.08 56.06 55.63 54.78 54.15 52.80 51.28 52.78 53.97 54.91 56.40 56.99 56.18 57.43 58.69 58.23 51.05 47.79 48.11 46.81 45.82 44.42 43.84 44.10 44.86 45.44 45.94 46.37 46.42 46.78 47.60 48.42 49.10
58.41 58.14 57.96 57.77 56.82 56.18 55.27 55.09 55.37 54.42 53.66 52.91 52.52 54.27 54.64 55.41 54.80 55.09 55.29 55.90 52.93 44.05 42.05 41.82 41.99 41.99 41.95 42.15 42.41 42.66 42.50 41.69 41.20 40.79 40.89 41.19 42.15 43.24
58.20 58.54 58.27 57.83 57.11 56.22 55.11 55.33 54.99 54.23 53.60 52.32 52.09 52.34 53.24 53.77 53.40 52.07 52.64 54.62 49.52 45.16 41.81 40.64 40.90 41.29 41.00 40.82 41.07 41.13 41.03 40.54 39.96 39.06 38.02 37.54 37.78 38.57
57.72 57.76 58.10 55.65 50.39 53.10 56.02 54.98 54.92 54.14 53.00 52.28 51.52 51.50 51.67 51.29 51.34 51.81 51.55 49.76 42.72 44.23 42.22 40.44 38.79 38.28 38.59 39.02 39.31 39.25 38.90 38.67 38.27 37.80 37.17 36.30 35.86 35.90
55.66 56.18 54.24 49.18 47.75 45.14 42.75 39.87 47.84 54.15 53.34 52.63 51.70 51.12 50.44 49.61 47.79 48.53 49.20 47.93 43.28 37.47 41.23 35.30 36.43 34.74 36.02 37.00 37.56 37.22 36.83 36.62 35.93 35.28 34.44 33.53 33.32 33.46
51.33 53.07 49.30 46.47 45.18 40.60 36.42 36.19 34.88 35.19 36.90 51.35 51.70 47.50 44.93 41.57 42.14 42.60 43.83 42.94 36.92 33.33 37.30 32.00 33.64 32.29 34.46 35.72 35.80 35.36 34.96 34.90 34.14 33.32 32.43 31.49 31.18 30.82
38.16 41.17 44.22 42.65 41.73 40.70 36.54 33.69 32.83 32.62 32.86 33.88 33.72 32.01 32.45 34.02 37.84 39.49 38.60 32.30 31.75 31.65 32.63 30.43 31.82 30.17 32.35 33.37 34.29 34.11 33.66 33.33 32.85 32.25 31.56 31.02 30.65 30.23
34.62 36.40 38.04 37.68 37.38 38.07 34.63 31.57 30.54 30.77 33.52 33.88 33.43 33.52 33.61 34.52 36.21 36.98 33.31 33.60 30.55 28.25 29.94 31.93 30.88 29.44 30.12 30.53 32.16 34.02 33.17 32.60 32.34 32.24 31.43 30.72 30.48 29.15
32.18 33.30 34.40 34.52 34.86 35.01 33.75 32.49 29.92 29.68 30.08 29.98 29.82 29.76 30.17 31.01 31.82 32.21 33.51 32.74 29.78 27.40 28.82 30.41 30.87 30.62 28.77 28.84 28.81 24.23 24.25 31.11 33.11 33.26 33.35 32.03 31.10 23.89
30.80 31.21 32.27 33.66 33.75 33.49 32.99 31.77 30.29 30.83 30.05 29.92 29.31 29.08 28.18 27.19 26.89 28.09 29.01 30.62 26.21 23.73 25.78 29.48 26.89 26.37 24.25 25.69 27.10 23.30 23.00 22.88 22.93 23.70 27.24 28.01 28.05 26.64
29.22 30.46 31.67 32.91 32.71 32.20 31.43 31.51 31.15 30.28 29.49 28.29 27.22 26.71 27.46 26.65 25.75 25.38 25.97 25.59 26.03 24.59 23.28 23.42 19.18 19.56 18.45 19.13 20.94 22.77 21.42 20.78 20.74 20.39 20.51 23.80 25.14 25.77
27.74 28.08 28.35 28.25 28.05 27.51 28.69 29.02 29.45 28.79 27.37 25.24 23.40 22.88 23.89 25.49 26.75 27.28 26.36 26.08 25.13 25.06 25.29 24.46 23.09 22.92 21.99 20.00 18.53 19.29 19.54 19.72 20.14 19.20 19.89 20.16 20.53 21.11
26.80 25.42 25.21 25.00 24.23 24.10 24.41 24.94 24.44 24.24 23.75 22.07 21.94 23.29 24.45 23.56 22.64 24.32 23.89 24.71 22.79 22.13 24.22 23.82 22.73 22.50 20.39 20.42 20.70 19.13 18.91 17.02 18.83 19.82 20.69 20.71 21.18 19.72
26.12 25.04 23.00 22.08 21.24 21.38 21.54 21.95 22.59 22.38 21.08 21.63 21.91 21.78 22.17 21.70 20.94 21.80 21.37 20.88 18.77 18.66 18.67 21.22 22.21 22.23 21.91 21.80 18.23 17.95 17.85 17.86 18.29 19.71 20.14 18.40 19.00 19.46
22.58 20.44 19.67 19.60 18.79 18.66 18.48 18.69 19.45 19.22 19.81 19.81 19.27 20.16 19.67 19.74 19.40 19.95 19.53 18.78 17.46 17.84 17.17 17.70 18.01 18.08 18.85 19.76 22.35 18.33 17.32 16.52 17.66 19.85 19.29 16.05 17.16 20.38
19.96 19.19 18.33 18.31 18.41 18.20 17.88 17.89 17.23 17.77 18.31 17.09 16.51 17.07 18.40 18.64 18.15 17.22 16.87 17.54 17.20 17.31 16.93 17.54 16.63 14.50 9.88 7.66 16.46 22.06 15.71 17.07 17.71 15.73 17.72 17.42 16.53 18.41
19.12 17.98 17.36 18.09 17.80 17.27 16.78 15.86 15.68 15.52 15.14 14.45 13.28 13.07 14.47 15.55 14.80 14.77 14.51 13.64 15.20 15.64 15.36 15.50 14.04 13.56 10.06 5.38 5.60 13.37 21.46 16.37 13.26 11.57 14.17 17.56 18.46 21.77
16.18 15.49 16.08 15.67 15.87 15.51 13.55 12.94 12.43 11.71 10.92 10.06 9.87 10.41 10.10 12.90 12.03 12.31 12.56 11.64 12.16 13.42 11.18 10.91 13.32 15.16 16.10 14.35 5.95 7.55 13.27 20.85 20.27 17.10 15.54 12.51 10.24 13.28
13.40 12.99 13.03 12.85 13.18 12.95 11.87 10.43 9.32 8.76 8.23 8.33 6.90 6.19 5.70 8.55 7.41 8.13 8.06 6.75 10.64 10.29 10.43 11.71 13.56 13.48 12.39 11.02 8.24 4.08 11.11 10.82 17.33 18.89 19.46 17.58 10.89 9.32
10.12 10.40 9.89 9.77 10.24 10.00 8.80 5.69 4.42 3.30 3.59 3.83 4.53 5.56 2.30 4.28 6.63 6.81 6.60 8.72 8.43 8.93 9.42 8.05 9.37 10.53 9.80 10.29 7.74 5.97 8.03 7.31 10.56 10.54 11.92 17.71 18.31 18.84

GFSNE_sfc_wetblb_105.txt.gz
Wetbulb
59.97 59.49 59.14 58.51 57.18 56.93 56.08 55.76 53.35 49.73 50.25 52.00 52.41 55.78 56.64 57.05 55.63 55.82 55.81 51.86 49.38 48.93 49.30 50.92 52.80 53.85 54.14 54.89 55.93 56.76 57.98 58.76 59.30 59.41 59.48 59.48 59.82 59.59
60.02 59.21 59.17 58.63 57.41 56.66 56.21 55.77 54.48 52.56 50.07 53.73 53.34 53.47 56.35 56.47 55.39 55.91 55.82 52.99 48.95 47.83 47.47 48.38 49.35 51.02 51.73 51.88 52.61 53.32 54.33 55.12 55.90 56.27 56.81 57.03 57.11 56.79
59.69 59.17 58.60 59.09 57.27 56.40 56.30 55.94 54.89 53.44 50.89 52.05 53.94 54.23 54.45 55.12 55.68 55.27 55.78 55.23 54.61 47.45 47.06 46.76 46.74 47.06 47.38 48.05 48.68 49.61 50.38 51.15 52.16 52.62 52.98 52.82 52.92 53.39
59.00 58.63 58.42 58.71 57.16 56.78 56.46 55.57 55.11 54.23 52.61 50.78 52.49 52.84 54.19 55.26 55.30 55.30 56.25 56.72 56.43 47.76 47.44 46.09 45.83 45.10 44.60 44.46 44.85 45.16 45.75 45.89 45.84 46.07 46.54 47.41 48.21 48.64
58.81 58.55 58.26 58.22 56.93 56.83 56.51 55.84 55.60 54.51 53.53 52.46 52.03 53.92 54.37 55.23 54.69 55.20 55.80 52.05 47.47 44.18 42.13 41.94 42.42 42.55 42.44 42.53 42.77 42.32 41.92 41.52 40.93 40.77 40.48 41.19 42.22 43.16
59.04 58.94 58.91 58.20 57.55 56.89 55.84 55.80 55.34 54.61 53.70 52.87 52.34 52.35 53.25 53.94 54.18 53.78 53.25 53.52 46.11 43.13 41.58 40.79 41.22 41.45 41.37 41.38 41.31 41.45 40.85 40.33 39.44 38.58 37.73 37.43 37.87 38.59
57.74 58.28 58.45 56.72 51.98 54.77 56.48 55.66 55.38 54.42 53.36 52.43 51.24 51.34 51.58 51.41 51.84 52.62 52.55 48.05 43.31 42.98 40.68 39.80 38.81 38.62 39.18 39.81 40.18 39.83 39.42 39.15 38.80 38.14 37.13 36.13 35.70 35.91
56.58 57.16 58.07 50.66 48.96 45.52 46.42 46.60 52.59 54.34 53.21 52.27 51.68 50.63 50.82 51.49 50.50 51.08 50.32 45.93 43.29 38.94 38.65 35.25 36.62 35.34 36.53 37.57 38.22 37.89 37.73 36.98 36.20 34.80 33.55 32.93 33.00 32.65
46.93 53.24 50.97 46.68 43.50 41.09 37.35 36.49 35.24 35.96 41.84 53.32 51.95 50.69 49.25 48.48 47.15 45.34 45.88 45.52 39.88 34.14 37.16 31.45 33.79 32.15 35.31 36.36 36.51 36.33 35.98 35.00 34.12 33.08 32.26 31.76 31.33 31.08
37.96 39.94 45.12 44.07 42.56 41.17 37.96 34.89 33.26 33.26 33.75 35.77 40.03 35.91 34.28 37.49 42.70 43.01 40.67 32.07 32.14 31.65 34.11 30.48 31.85 30.40 32.75 33.81 34.92 34.83 34.47 33.92 33.40 32.79 31.76 31.24 30.97 29.89
34.40 36.12 37.27 37.68 37.21 39.85 36.60 32.98 31.97 31.39 33.44 34.51 34.48 34.42 34.86 35.63 37.30 38.37 34.21 35.52 30.02 28.89 30.40 31.83 30.58 29.48 30.67 30.73 32.06 33.92 33.50 33.15 33.09 32.92 32.12 31.44 31.10 28.49
32.69 32.60 33.84 34.38 34.77 35.14 34.33 33.32 31.30 30.10 31.07 30.76 29.89 29.31 29.95 31.02 32.08 32.93 34.59 33.28 29.79 28.61 28.79 30.93 31.09 30.22 27.97 30.73 30.73 30.34 29.33 31.51 32.53 31.77 33.20 30.92 29.11 24.03
30.62 31.01 31.85 33.11 33.82 33.82 33.49 32.14 30.50 30.95 29.79 29.27 28.29 27.38 26.86 26.27 26.71 28.04 29.33 30.91 27.10 24.57 26.28 29.49 28.03 28.04 28.99 28.65 29.68 26.99 27.51 22.81 21.98 22.45 25.89 26.89 26.93 25.68
27.90 29.14 30.43 31.59 31.61 31.47 30.81 31.03 30.57 29.44 28.44 26.94 26.38 25.76 24.65 24.42 25.03 25.74 26.09 25.96 26.49 25.31 26.80 27.38 23.97 24.26 23.65 23.36 20.95 22.40 21.10 21.27 22.23 21.67 21.24 23.45 24.17 24.62
27.38 27.89 28.29 28.36 28.17 27.40 27.95 27.73 27.32 26.86 25.41 23.58 22.88 22.82 24.84 26.25 27.02 25.88 26.18 25.64 24.86 24.67 25.01 25.39 24.98 24.32 23.87 21.71 20.28 19.46 20.23 20.07 21.55 20.84 20.91 21.07 20.95 21.26
25.35 24.82 25.25 25.00 24.03 24.05 24.35 24.58 24.30 24.15 23.59 22.70 22.74 23.69 24.68 23.94 23.41 25.41 23.82 23.29 21.71 21.29 23.66 24.36 24.04 24.36 21.54 21.60 21.49 18.92 19.62 18.05 20.45 21.22 21.61 21.50 21.98 21.80
23.62 22.48 21.43 20.94 20.48 20.90 20.89 21.20 21.95 22.12 21.44 22.42 22.29 21.99 21.42 21.44 20.82 22.28 21.66 21.13 18.99 17.50 17.35 20.54 22.68 23.54 22.98 21.97 18.57 18.41 18.21 18.44 19.34 20.10 20.36 18.82 20.36 21.42
21.07 19.13 18.15 18.33 17.90 18.24 18.04 17.82 18.47 18.23 19.12 19.81 20.07 20.22 19.38 19.26 19.01 19.98 20.42 19.52 17.18 17.01 16.63 17.73 18.08 18.82 19.15 19.98 22.37 17.69 17.26 17.19 18.32 19.61 18.88 16.30 16.72 20.24
18.64 17.74 17.07 17.27 17.24 17.42 17.24 16.79 15.65 16.48 17.31 16.66 16.97 17.82 18.61 18.44 17.72 17.34 17.86 18.57 17.17 16.46 15.73 15.99 15.65 14.60 10.98 8.99 16.07 22.14 16.49 17.47 17.25 15.68 16.86 16.63 14.61 16.88
17.29 16.04 15.76 16.26 15.83 15.19 14.95 14.23 13.79 13.70 13.53 13.66 13.58 13.87 15.53 15.83 15.21 14.77 14.98 15.08 15.49 15.19 13.65 13.79 13.14 12.73 11.12 6.70 6.73 13.52 20.24 15.27 13.92 11.46 12.37 15.27 16.36 19.90
14.33 13.87 14.45 14.36 14.03 13.01 11.89 11.15 10.44 9.80 9.80 9.63 9.91 10.77 11.01 13.09 12.11 12.43 13.09 12.74 13.33 12.76 10.58 10.29 12.31 15.32 15.72 13.86 6.06 6.93 12.05 19.14 18.44 13.91 13.25 10.66 8.69 11.03
11.45 11.44 11.64 11.42 11.73 11.11 9.50 8.69 7.75 7.59 7.63 7.87 6.33 6.13 7.61 9.30 8.51 9.53 9.62 9.90 10.19 10.21 9.63 10.84 12.56 12.75 12.11 10.14 7.49 2.43 9.74 10.07 14.76 16.86 17.28 15.39 6.89 5.98
7.92 8.73 8.32 8.23 8.80 6.97 6.45 3.41 1.60 1.17 2.43 3.81 4.35 4.05 0.45 4.96 6.84 7.17 7.39 8.63 9.15 8.13 8.41 7.38 9.09 9.73 9.44 9.19 6.94 5.15 6.15 5.42 8.66 8.53 9.99 15.96 16.83 17.29

GFSNE_sfc_wetblb_108.txt.gz
Wetbulb
60.72 60.27 59.69 59.73 59.45 58.49 57.80 56.99 54.89 51.17 51.49 53.09 53.67 57.22 57.57 57.65 56.26 56.86 57.07 51.81 49.67 49.27 49.72 51.12 52.89 54.05 54.53 55.38 56.13 57.32 58.68 59.38 60.00 60.06 60.28 60.69 60.45 60.33
60.55 59.81 59.60 59.73 59.02 57.73 56.77 56.91 56.60 54.88 51.73 54.33 54.47 55.36 57.10 57.15 55.94 56.76 56.50 52.93 48.92 48.07 47.88 48.61 49.85 51.38 52.23 52.73 53.12 53.75 54.64 55.44 56.11 56.39 56.61 57.16 57.59 57.84
59.63 59.18 58.97 59.56 58.76 57.73 56.88 56.26 55.49 54.15 52.37 53.10 54.39 54.82 55.87 56.12 56.40 56.24 56.37 56.00 55.54 47.48 47.03 47.12 46.69 47.03 47.72 48.51 49.06 49.93 50.98 51.81 52.51 53.29 53.63 53.15 53.02 53.69
58.92 58.95 58.76 59.09 58.72 57.93 56.74 55.79 55.45 55.06 52.71 50.83 52.66 53.63 53.95 55.98 56.00 55.04 55.81 56.22 53.97 46.42 46.13 46.17 45.97 45.36 45.18 45.26 45.37 45.80 46.54 47.18 47.39 47.84 48.44 48.83 49.68 50.21
58.77 58.89 58.77 58.75 58.03 57.29 56.15 55.73 55.62 55.32 54.61 52.42 52.02 53.63 54.24 55.20 54.68 55.08 55.24 48.86 46.50 43.91 42.57 42.80 43.12 43.25 43.15 43.36 43.26 43.01 42.91 42.68 42.36 42.32 42.55 43.19 44.32 44.86
57.44 58.43 59.01 58.71 58.25 58.06 56.73 55.79 55.53 54.96 54.21 53.45 52.39 52.51 53.18 54.51 55.24 54.31 51.78 48.95 44.60 43.30 42.07 41.70 42.08 42.15 42.02 41.68 41.63 41.62 41.05 40.74 39.91 39.01 38.28 38.01 38.70 39.45
56.25 57.54 58.10 57.24 52.98 55.60 57.10 56.53 55.75 54.80 53.95 53.40 52.60 52.10 52.20 52.85 53.19 53.97 52.36 47.61 43.80 42.32 40.31 39.80 39.51 39.72 40.65 40.89 40.95 40.37 39.88 39.64 38.99 38.11 37.03 36.17 35.82 36.68
51.32 56.47 57.95 51.90 50.25 46.74 47.28 48.84 53.87 55.00 53.95 53.30 53.11 52.30 52.72 53.15 51.67 52.81 48.98 45.84 44.17 41.87 38.64 35.42 37.41 36.19 37.41 38.66 38.80 38.59 37.87 36.69 35.45 34.34 33.78 33.78 32.95 32.74
42.15 44.29 49.67 50.00 49.98 47.88 39.42 38.72 37.43 39.09 47.45 54.43 53.52 53.23 51.52 51.78 51.65 49.74 49.22 47.19 44.46 36.74 36.88 31.76 34.44 33.34 36.49 37.28 37.65 36.99 35.97 34.95 33.82 32.96 32.52 31.92 31.55 31.03
36.51 39.11 41.54 40.26 39.03 43.07 39.74 35.19 33.75 33.91 34.80 37.58 44.54 37.50 36.77 43.81 50.62 49.60 47.54 33.63 32.99 32.54 35.20 30.60 32.19 31.21 33.36 34.89 36.15 35.60 34.85 34.21 33.20 32.33 32.05 31.74 30.52 29.68
33.79 34.99 36.21 36.32 36.61 38.92 35.84 33.23 32.33 31.77 33.37 34.00 34.02 34.15 34.27 35.06 37.55 41.45 36.56 38.18 31.37 30.31 31.59 31.22 30.52 29.89 31.20 31.38 32.90 34.50 34.00 33.63 33.48 32.89 32.25 31.66 29.11 27.88
31.93 32.39 33.67 34.32 34.83 35.91 35.37 34.75 32.75 31.82 32.00 31.21 31.06 30.51 30.85 31.54 32.44 32.90 36.01 38.88 30.98 29.48 29.48 31.10 30.22 29.85 27.59 30.67 31.00 30.78 30.65 32.59 32.59 33.26 30.62 29.29 28.25 26.77
29.30 29.69 31.24 32.68 33.09 33.67 33.25 32.44 31.65 31.52 30.20 28.91 27.51 26.81 26.74 26.93 27.31 28.63 29.44 31.75 29.51 25.61 27.57 30.92 29.83 29.71 29.93 28.15 25.34 25.16 26.49 24.95 24.63 25.31 26.49 26.96 26.74 26.08
26.88 28.33 29.63 30.69 30.70 30.50 29.69 30.04 30.10 29.99 28.65 26.85 25.35 24.44 23.87 24.20 24.75 25.21 25.25 25.54 26.33 26.36 27.89 28.55 26.21 27.19 27.15 24.72 21.19 22.90 22.75 23.80 24.42 23.44 24.10 24.65 24.95 24.85
26.30 26.70 26.93 26.97 27.07 26.58 27.39 27.21 26.66 26.43 25.47 23.92 23.08 23.43 24.52 25.36 25.45 24.84 24.72 24.48 24.15 24.84 25.85 26.69 26.39 26.17 25.63 23.68 21.01 21.17 21.74 22.08 23.71 23.07 23.46 23.54 23.30 23.78
23.97 23.60 23.88 24.21 22.98 22.63 23.35 24.03 24.16 24.46 23.87 22.74 22.39 23.62 24.62 24.24 23.89 24.41 22.43 22.18 20.69 20.28 23.67 25.08 25.45 25.17 22.51 22.71 21.62 19.52 21.21 19.63 22.11 22.27 22.65 22.83 23.15 23.83
22.94 22.04 20.92 20.79 20.00 20.06 19.89 20.27 21.17 21.82 21.48 22.43 22.01 21.61 21.71 21.88 21.63 23.05 22.18 20.51 18.52 17.73 18.29 21.40 23.58 24.06 23.93 22.06 18.65 19.33 19.22 19.43 20.59 20.87 20.59 19.45 21.19 22.46
20.39 18.34 17.56 17.75 17.31 17.61 17.25 17.27 17.94 18.44 19.92 20.57 20.60 20.35 19.77 19.93 20.14 20.90 20.59 19.37 17.53 17.06 16.85 18.00 19.20 19.56 19.66 20.48 22.19 18.21 18.47 18.48 19.10 19.32 19.38 17.37 17.21 19.96
17.10 16.55 15.55 15.55 15.70 15.91 15.75 15.38 14.56 16.16 17.66 17.34 17.98 18.42 18.98 18.51 18.82 18.67 19.12 18.58 16.81 15.80 15.53 16.53 16.43 16.00 13.82 12.66 17.86 21.55 16.73 17.13 17.25 16.70 17.20 16.23 15.04 16.91
15.40 14.49 14.04 14.01 13.94 13.49 13.04 12.87 12.88 13.33 13.71 14.54 14.70 15.58 16.58 16.54 16.02 15.66 16.23 16.54 15.55 14.66 13.62 14.13 13.26 13.72 12.71 12.22 13.41 15.68 19.83 16.96 16.13 13.59 13.47 15.43 16.52 18.50
12.94 12.68 13.10 12.81 11.94 11.46 10.77 10.50 10.44 10.08 10.18 10.23 10.77 11.85 12.59 14.00 13.38 13.84 13.54 13.16 13.83 13.50 11.00 10.64 12.65 15.67 16.15 15.12 11.03 11.17 14.13 17.76 16.70 14.03 13.75 12.17 11.55 12.49
9.64 9.49 9.53 8.79 8.80 8.82 7.57 8.14 7.83 7.90 7.95 8.09 6.81 7.57 9.39 10.77 10.30 10.83 11.32 10.83 10.52 10.43 9.92 11.45 13.13 13.81 13.08 11.09 8.52 8.21 10.46 12.03 14.40 15.68 15.90 14.77 12.33 8.40
4.65 6.74 5.96 5.63 5.85 4.65 4.46 2.54 1.71 2.54 3.71 4.51 5.01 4.53 3.03 5.92 7.54 8.44 8.88 9.36 8.87 8.47 8.70 8.38 9.50 10.69 10.22 8.64 7.52 7.32 7.28 7.99 9.46 9.59 11.60 14.56 15.62 16.25

GFSNE_sfc_wetblb_111.txt.gz
Wetbulb
62.19 62.13 61.63 61.46 61.09 61.42 60.54 59.81 57.40 52.34 51.85 55.15 55.19 58.53 59.13 60.61 59.14 60.94 60.91 53.72 49.87 49.64 50.14 51.54 53.24 54.41 54.88 55.61 56.48 57.57 58.57 59.32 60.04 60.46 60.74 61.10 61.60 61.78
61.92 61.52 61.13 61.53 61.40 61.00 60.86 59.61 59.72 56.14 52.98 57.90 55.59 57.14 58.51 58.40 57.31 60.76 61.08 54.31 49.32 48.47 48.31 49.09 50.38 51.97 52.47 53.22 53.68 54.31 55.41 56.62 57.52 58.22 58.70 58.88 59.08 59.05
61.23 61.53 60.96 61.26 60.56 60.82 60.81 61.17 57.55 57.11 54.69 57.99 56.19 56.52 57.02 57.28 57.84 59.62 60.87 60.57 59.46 47.85 47.77 47.81 47.79 48.45 49.17 49.81 50.19 51.04 51.94 52.87 53.62 54.50 55.04 55.81 56.54 56.74
61.15 60.77 59.99 60.13 59.86 60.45 59.24 58.14 58.55 57.70 57.27 54.31 54.57 54.96 55.61 57.02 58.18 59.36 59.57 59.96 60.54 49.42 47.18 46.82 46.43 45.92 45.98 46.42 46.82 47.31 47.78 48.57 49.38 50.37 50.85 51.69 52.42 53.06
59.51 59.66 60.25 60.33 58.91 58.68 58.81 57.86 57.05 56.72 56.51 55.41 52.88 55.02 55.22 55.93 56.11 57.06 59.09 58.82 55.02 45.05 43.54 43.87 45.04 45.18 44.93 44.52 44.74 44.90 44.80 44.42 43.79 43.98 44.49 45.48 47.02 48.20
57.54 58.60 58.08 58.17 58.61 58.57 58.75 58.13 57.34 56.01 55.59 54.68 53.36 53.32 54.12 55.01 56.29 54.58 51.56 51.23 48.79 46.40 43.65 43.35 43.16 42.88 42.70 42.47 42.22 42.27 42.11 41.59 40.95 40.25 39.78 39.37 40.05 41.73
55.22 55.76 57.48 57.25 51.94 54.52 58.08 57.72 57.12 55.67 55.11 54.18 53.33 53.21 53.06 53.14 53.02 55.10 52.60 48.01 46.16 45.00 42.96 43.45 43.75 43.27 42.62 41.96 41.81 41.08 40.33 39.95 39.47 39.00 38.31 37.84 37.89 38.25
49.50 50.50 52.77 50.21 50.07 45.89 46.07 47.70 54.57 55.77 54.62 54.06 53.65 52.41 53.03 53.82 54.56 53.91 49.60 45.79 44.05 43.82 41.72 38.14 40.74 39.53 39.78 39.96 39.71 39.18 38.61 37.98 37.44 36.48 35.42 35.04 35.19 34.76
41.45 42.49 44.96 46.89 42.81 46.40 40.24 39.37 40.44 42.43 49.62 55.37 53.78 53.60 53.62 54.00 54.49 53.08 49.81 49.75 47.70 41.93 39.89 34.50 36.42 34.98 37.55 38.18 37.92 36.71 35.66 34.90 34.19 33.59 32.76 31.94 31.41 30.81
35.68 37.17 38.93 39.97 40.23 41.66 38.09 35.26 34.00 33.76 35.37 39.30 50.41 42.66 41.99 53.95 54.66 54.04 52.03 38.10 34.76 34.27 37.51 31.73 33.19 32.25 35.09 36.48 36.80 35.85 34.55 33.70 33.28 32.74 31.86 31.02 30.31 29.99
33.03 33.92 34.86 36.02 36.02 38.10 35.67 33.22 32.66 32.08 34.11 34.84 34.69 34.57 34.45 35.10 39.68 46.49 41.97 41.83 32.66 32.66 33.20 32.18 31.69 31.02 31.90 31.89 34.03 35.22 34.24 33.33 32.83 32.71 32.24 30.43 29.06 28.60
30.70 31.29 32.24 33.04 33.83 34.46 37.02 35.19 32.61 31.93 32.84 32.46 32.33 32.27 32.54 32.42 32.90 33.17 40.96 44.35 33.02 32.11 32.30 31.65 30.83 30.66 27.39 31.20 31.81 32.54 33.56 33.93 33.41 32.91 30.91 29.48 27.66 28.48
26.57 27.16 29.14 30.92 31.59 32.04 31.94 31.56 31.09 31.89 31.60 31.79 31.04 30.02 28.11 27.00 27.21 28.12 29.87 33.47 32.16 27.85 29.28 32.66 31.58 31.34 30.09 26.29 24.95 26.69 27.90 27.02 27.71 28.37 28.29 27.56 27.06 27.15
24.59 25.57 26.61 27.99 28.49 28.95 28.58 29.39 29.54 29.44 29.28 27.49 25.79 24.26 23.87 23.69 24.26 24.91 25.90 26.42 26.95 26.81 28.92 31.17 29.10 29.86 27.16 23.10 20.28 23.76 25.02 26.27 26.11 25.77 26.88 26.39 25.74 25.31
25.85 26.34 26.28 25.96 25.38 24.64 26.49 26.60 26.62 26.32 25.58 24.08 23.42 23.60 24.34 25.26 25.69 25.10 25.33 25.43 25.21 26.11 27.68 29.27 28.83 28.98 28.29 23.89 21.44 22.21 22.59 24.10 26.87 26.79 27.43 27.79 28.11 28.74
25.58 25.13 25.13 24.68 23.75 23.10 22.79 23.68 24.08 24.14 23.44 22.82 22.54 23.73 24.87 24.45 23.75 24.86 23.07 23.29 21.92 22.02 25.26 26.81 27.51 27.27 25.19 25.88 25.62 24.05 24.66 23.10 26.07 26.55 26.70 27.07 27.54 27.39
25.53 25.12 23.77 22.95 21.90 21.75 21.07 20.96 21.76 22.90 22.39 22.96 22.57 22.37 22.45 22.76 22.29 23.28 22.80 21.92 20.05 19.79 20.64 22.73 24.26 24.77 24.97 23.75 21.18 22.26 22.19 21.84 22.99 22.80 22.99 22.57 24.83 26.51
23.32 22.03 20.82 20.19 19.28 19.03 18.62 18.91 19.87 20.46 21.74 22.46 22.33 22.29 21.94 21.98 21.35 21.72 21.71 20.74 19.05 19.00 19.54 21.44 22.27 21.61 21.37 21.03 23.88 20.58 21.09 20.81 21.52 22.15 23.00 21.38 21.72 24.89
20.82 20.00 19.13 18.16 17.79 17.20 17.14 17.01 16.97 18.09 20.11 20.25 20.82 21.22 21.71 21.76 21.98 21.02 20.67 19.55 18.20 17.80 17.64 19.29 19.88 21.12 18.65 16.32 18.07 22.32 19.51 19.64 20.48 20.52 20.90 20.35 19.20 20.99
18.82 18.04 17.65 17.68 16.67 15.95 16.02 15.63 15.50 16.21 16.62 17.34 18.02 18.98 20.10 20.21 19.52 19.18 19.17 17.75 16.60 16.02 15.28 16.33 16.45 17.24 18.08 17.16 17.19 17.15 20.30 19.95 19.72 19.06 18.92 19.91 21.05 19.74
16.18 15.86 16.24 16.03 15.77 15.31 15.23 15.24 14.94 14.47 15.25 15.71 15.83 16.52 18.14 18.39 17.26 17.26 17.02 16.80 16.66 15.87 13.65 13.67 15.18 17.04 19.03 19.55 16.73 15.88 17.87 17.12 17.17 16.87 17.71 17.56 17.83 18.86
14.40 14.14 13.59 13.51 13.43 13.68 13.60 14.54 14.73 14.25 14.31 14.25 14.56 15.62 16.63 17.31 16.14 15.91 16.03 15.23 14.55 14.58 13.96 15.20 17.13 17.91 17.27 16.29 13.34 12.77 16.00 16.71 17.45 15.69 15.33 15.10 17.08 14.91
12.28 12.80 12.73 12.16 12.59 11.64 11.52 11.71 11.40 12.22 11.87 12.21 13.19 13.65 14.31 14.25 15.22 15.49 14.93 14.79 14.42 13.87 14.26 14.06 15.04 16.21 14.75 13.65 13.43 13.86 10.83 13.36 15.44 16.13 18.70 14.90 15.69 15.93

GFSNE_sfc_wetblb_114.txt.gz
Wetbulb
64.86 65.85 65.22 65.19 65.44 64.57 63.64 62.17 59.35 55.76 54.44 58.39 59.77 60.95 60.35 60.63 59.29 59.52 60.86 53.22 49.68 49.46 50.45 51.87 53.66 55.12 55.51 55.88 56.54 57.35 58.14 58.76 59.30 59.64 60.01 60.74 61.38 61.69
64.20 63.49 63.72 64.19 63.86 64.23 63.07 62.01 60.55 59.50 55.94 58.18 60.80 62.57 60.78 59.93 58.88 60.21 61.32 54.94 49.83 48.33 48.35 49.20 50.60 52.34 53.05 53.50 54.15 54.90 55.83 56.83 57.60 58.17 58.71 59.39 60.52 61.00
63.06 62.54 62.49 63.14 62.07 61.67 61.73 61.57 61.14 59.68 56.65 57.80 59.35 61.53 58.12 58.51 58.93 58.88 59.70 60.45 60.56 48.20 47.84 48.11 48.25 49.04 49.91 50.37 50.93 51.82 52.70 53.75 54.90 56.01 57.06 58.08 59.01 59.10
61.72 61.44 61.35 62.16 61.93 63.31 62.96 61.00 60.89 60.70 58.61 56.53 58.84 57.50 57.41 58.79 58.57 57.62 58.44 60.31 61.12 51.94 48.36 47.74 47.84 47.61 47.56 47.97 48.11 48.61 49.05 49.84 50.72 51.86 52.90 53.94 55.12 55.95
60.79 61.13 61.88 62.30 62.18 62.10 60.87 60.41 60.23 59.34 59.75 57.49 56.66 59.16 58.73 59.45 57.43 57.74 57.71 58.27 59.27 48.95 46.73 46.09 46.61 46.88 46.54 46.45 46.68 46.79 47.00 46.80 46.44 46.73 47.56 47.99 49.64 51.04
59.27 60.73 61.02 60.14 59.87 60.06 59.73 58.92 58.34 58.08 57.47 56.57 56.56 55.12 56.07 56.77 57.04 55.81 55.51 56.55 51.50 52.90 45.94 46.52 46.70 45.34 45.11 44.75 44.66 44.78 44.78 43.97 43.31 42.52 41.91 41.32 42.08 44.27
58.01 58.59 58.35 52.84 46.39 46.83 52.59 58.19 59.76 57.50 56.83 55.65 54.91 55.12 54.00 53.69 53.59 55.51 54.66 50.23 47.27 47.18 45.46 45.62 46.40 45.73 43.97 43.01 43.68 42.83 41.83 41.53 41.37 41.20 40.33 39.60 39.47 40.04
46.29 46.10 48.88 48.89 47.86 42.22 41.75 40.99 44.81 55.49 56.98 55.97 54.74 54.04 53.80 54.13 54.39 54.64 53.58 46.21 43.58 45.20 43.29 39.80 44.40 42.70 42.90 43.02 40.84 40.04 39.91 39.93 39.77 39.54 38.99 38.39 37.96 37.16
37.20 37.63 40.42 43.44 42.94 44.82 44.12 40.23 37.89 35.81 36.69 46.06 55.13 54.57 54.02 54.88 54.80 53.71 52.24 49.38 49.71 42.76 41.20 35.08 38.81 37.20 39.81 39.34 39.19 38.80 38.35 37.80 37.45 37.25 36.33 34.62 33.33 32.47
33.26 33.26 35.29 37.14 37.92 38.63 42.98 40.28 36.14 34.84 34.26 36.65 37.15 39.68 44.97 55.52 55.66 54.84 52.89 45.15 38.63 39.90 38.44 32.74 34.86 33.77 36.33 36.84 37.03 36.43 36.04 35.13 34.37 33.59 32.80 32.00 31.36 30.72
30.84 31.58 32.03 33.36 33.54 36.18 39.31 37.27 34.49 33.77 35.14 34.99 34.44 34.20 34.15 34.68 43.58 54.08 41.46 41.54 33.41 33.59 33.59 33.03 31.93 31.61 32.86 32.86 34.50 34.92 34.03 33.62 32.77 32.31 31.92 31.30 30.25 29.78
28.50 29.01 30.06 30.50 31.60 32.60 34.06 34.89 32.50 31.59 32.12 32.82 32.86 32.79 32.29 32.22 33.10 34.28 45.76 45.52 33.95 32.50 33.22 32.88 31.12 30.68 27.44 31.91 32.15 32.36 32.71 33.16 32.95 32.34 31.17 30.14 29.70 29.20
26.21 25.84 27.84 29.57 29.99 30.25 30.15 29.92 29.90 31.04 29.87 29.33 29.17 29.07 28.60 27.69 27.72 29.85 31.51 33.27 35.04 32.08 33.00 33.75 32.37 31.42 29.67 26.00 25.96 30.02 31.77 31.42 30.87 30.56 30.28 29.23 27.91 28.34
25.50 26.21 27.33 28.21 28.72 28.42 27.72 28.08 28.33 28.30 27.53 25.70 24.67 24.35 24.73 24.43 25.23 26.49 27.25 28.13 28.89 28.74 31.10 32.14 32.42 31.18 26.71 23.57 20.84 25.33 26.31 27.54 27.57 26.78 27.01 27.20 26.16 26.05
28.26 27.91 27.69 27.32 26.45 26.26 26.90 26.56 26.05 25.65 24.57 22.89 22.42 22.89 25.09 26.17 26.74 26.60 26.90 27.46 26.30 26.57 28.73 31.51 30.66 28.96 28.72 23.59 21.41 22.62 23.09 25.86 27.57 27.01 27.34 27.33 27.95 28.78
29.48 30.20 28.92 28.53 28.34 27.35 26.05 26.23 26.84 26.61 24.05 22.83 22.86 24.15 24.84 24.26 23.58 24.91 24.25 24.85 23.28 22.94 26.20 27.81 29.35 28.92 25.87 25.70 24.70 24.46 24.85 23.54 26.96 27.16 26.95 27.45 28.15 29.12
30.08 30.18 29.00 28.65 27.81 27.78 27.68 26.94 27.82 27.24 25.45 25.50 25.10 24.65 23.94 23.30 22.77 24.16 23.81 23.76 22.27 21.82 22.04 24.11 25.74 26.28 26.92 27.30 25.21 26.04 25.59 25.76 26.36 25.16 25.29 24.73 26.75 28.62
27.64 25.81 25.01 25.42 24.96 25.33 25.24 25.61 25.76 25.65 26.24 26.14 25.78 25.74 25.06 24.81 24.19 23.71 23.57 22.29 21.06 21.48 22.36 24.26 24.66 23.71 22.85 22.33 26.11 23.12 23.29 22.36 22.94 23.06 23.58 22.98 23.42 26.32
24.63 23.80 23.04 23.20 23.42 23.40 23.45 23.70 23.27 23.66 24.77 24.54 24.52 24.92 24.71 24.31 24.12 23.09 22.40 21.33 20.09 19.98 20.46 22.32 23.65 24.27 21.40 16.91 19.49 23.67 21.34 21.71 21.36 21.30 22.00 22.26 22.23 24.23
22.67 22.13 22.09 22.45 22.03 21.83 21.86 21.43 21.97 22.75 22.76 22.82 23.27 23.48 23.82 23.64 22.84 21.81 21.34 20.51 19.25 18.55 17.87 19.25 20.09 21.93 21.87 19.43 17.97 17.89 20.94 21.39 21.29 20.43 20.70 21.88 22.82 22.09
20.42 19.91 20.37 20.42 20.49 20.82 21.38 21.28 21.01 20.76 21.39 21.77 21.74 21.68 22.30 22.18 20.51 20.06 19.60 18.98 18.78 18.11 16.12 16.06 17.07 20.41 21.77 21.90 17.61 16.86 18.00 17.64 18.14 18.96 19.79 19.76 20.61 21.91
18.82 18.79 18.87 19.14 18.73 18.92 19.76 19.63 20.49 20.32 20.31 20.33 20.55 21.62 21.96 21.51 19.88 19.79 19.94 19.11 18.40 18.02 16.94 18.49 20.29 20.84 20.72 19.77 16.65 15.82 17.49 18.64 17.80 16.52 15.92 14.92 18.24 18.52
15.92 16.94 17.28 17.02 17.27 17.35 17.63 17.31 17.04 18.28 17.61 18.22 19.05 19.46 19.68 19.45 20.18 20.15 19.63 18.78 18.70 18.04 18.11 17.69 19.04 19.95 18.34 17.91 17.82 16.66 14.75 16.77 19.32 19.45 19.71 15.92 16.35 16.44

GFSNE_sfc_wetblb_117.txt.gz
Wetbulb
64.78 64.71 65.98 66.18 67.07 66.43 65.48 62.81 61.76 58.44 58.57 61.21 61.29 64.21 63.26 61.65 60.04 61.05 60.47 52.70 50.29 49.63 50.61 52.51 54.75 55.83 55.93 56.49 56.97 57.48 58.20 58.29 58.72 58.85 59.26 59.86 60.89 61.41
64.47 64.07 64.10 66.33 66.17 66.20 65.36 65.15 64.15 61.73 58.69 62.34 60.74 62.23 63.61 62.30 60.06 60.91 60.98 54.56 49.86 48.88 48.91 49.97 51.55 53.34 53.86 54.10 54.57 55.16 55.94 56.71 57.36 57.76 58.21 58.96 59.81 60.47
63.80 63.47 63.94 65.57 64.66 63.14 62.89 63.98 63.46 62.30 58.53 60.73 62.54 62.94 63.50 62.42 61.41 60.67 60.92 59.73 58.31 48.68 48.16 48.18 48.59 49.58 50.51 51.08 51.60 52.74 53.45 54.06 54.96 55.79 56.82 57.72 58.86 59.82
62.74 62.76 62.18 63.06 63.66 63.28 62.38 61.23 61.02 61.66 60.46 58.01 60.93 61.07 61.15 63.18 62.63 60.10 59.18 60.52 59.88 52.66 48.06 47.71 47.77 47.77 48.01 48.38 48.83 49.46 50.12 50.99 51.69 52.92 54.07 55.44 57.11 58.16
62.24 61.10 62.32 62.24 60.83 60.87 62.13 62.06 62.19 61.08 61.92 59.92 58.17 59.72 60.15 61.85 60.48 59.61 59.30 58.94 59.73 55.76 47.77 47.08 47.48 47.47 47.19 47.17 47.63 48.04 48.10 48.01 48.32 48.66 49.29 50.16 51.42 52.84
60.15 59.93 60.67 59.97 58.18 55.73 58.43 58.98 60.52 60.67 59.02 58.60 58.44 57.42 58.31 59.00 59.75 56.95 56.11 57.49 57.35 55.48 48.70 50.23 48.36 47.43 47.15 46.81 46.67 47.01 47.08 47.04 46.88 46.68 46.23 45.30 45.67 47.51
51.91 51.56 50.34 46.71 42.69 43.69 48.76 51.21 50.82 53.08 55.68 56.93 56.29 56.25 56.15 55.50 55.35 57.04 55.84 56.06 50.97 48.92 46.45 46.84 48.67 49.65 49.53 45.37 48.50 45.91 45.46 45.53 45.62 45.29 44.39 43.17 42.44 43.56
42.79 43.12 45.58 44.89 43.29 41.46 40.66 39.92 40.20 44.87 47.96 51.96 54.63 54.62 55.12 55.80 55.68 55.18 55.04 47.78 44.87 45.90 45.24 40.96 44.49 43.77 44.11 47.40 45.46 43.55 43.04 42.98 43.10 42.95 42.26 41.68 40.91 40.13
35.06 37.21 39.06 39.26 38.81 40.84 42.10 40.60 38.16 35.73 35.59 38.66 42.74 47.95 49.96 54.34 55.76 54.71 54.38 51.50 51.37 45.45 42.31 35.36 38.73 36.96 39.80 40.18 40.43 40.94 40.90 40.97 40.64 40.13 39.57 38.67 38.00 37.36
31.77 32.26 33.58 34.15 34.02 36.12 41.14 41.61 37.75 36.87 36.29 36.02 35.34 33.56 33.35 34.62 38.01 52.36 55.08 52.68 40.05 41.34 39.46 32.99 34.50 33.23 36.23 38.13 39.36 39.25 39.21 38.97 39.05 38.29 36.60 35.09 33.99 33.25
30.02 30.86 31.08 31.23 32.42 34.32 38.40 37.67 33.95 32.50 34.28 34.23 33.52 32.71 32.68 33.38 34.07 41.96 49.94 42.79 33.41 33.77 33.77 33.59 32.14 31.46 31.94 31.89 34.47 36.38 35.69 35.39 35.05 34.26 33.41 32.56 31.81 31.18
28.87 29.06 30.43 30.66 30.90 31.17 31.28 32.18 31.45 31.02 31.16 31.14 30.37 30.61 30.49 30.03 31.05 32.13 35.11 44.60 35.04 32.68 33.59 32.96 32.31 31.17 27.64 31.54 31.66 31.80 31.87 32.96 32.98 32.95 32.63 32.13 30.52 28.23
26.06 25.98 27.62 29.26 30.02 30.23 29.85 28.81 28.02 29.89 28.74 28.23 27.66 27.95 28.14 28.39 28.22 28.65 29.82 31.62 34.50 32.32 34.29 33.41 32.65 31.48 30.01 27.02 29.55 31.15 31.08 31.04 30.60 30.77 31.67 31.50 31.48 30.42
28.08 28.95 29.50 29.40 29.03 28.59 27.97 28.18 27.97 27.86 27.30 25.65 24.75 23.89 24.24 24.77 26.69 27.98 27.78 27.89 29.92 31.46 31.94 32.87 32.64 31.42 27.45 25.33 22.81 27.26 28.22 28.52 27.83 26.72 27.21 28.73 28.45 28.54
30.89 30.34 30.25 30.32 29.85 29.70 28.93 28.27 28.36 27.51 26.19 24.00 23.32 23.27 24.13 25.69 26.65 26.84 27.92 28.18 27.30 27.46 30.70 32.14 31.21 29.92 28.47 25.53 23.22 23.86 23.89 25.91 27.13 25.71 25.95 26.23 26.25 26.96
31.35 32.04 30.93 30.31 30.35 30.53 30.08 30.35 31.48 30.45 28.44 26.87 25.68 25.79 26.20 25.10 24.26 25.69 25.12 25.69 23.74 23.33 26.13 28.88 29.64 28.54 25.14 25.30 24.49 22.87 24.78 22.98 26.35 27.25 27.89 28.07 28.69 29.30
30.46 30.27 28.54 28.34 27.80 28.34 28.67 28.50 28.79 28.80 28.45 29.26 28.75 28.26 27.95 26.76 25.36 25.66 24.91 24.74 22.73 22.04 22.43 24.51 25.59 27.40 28.30 27.27 24.03 25.45 24.96 25.47 27.57 27.50 27.44 25.64 27.21 27.72
27.49 25.69 25.17 25.48 25.17 24.95 25.19 25.40 26.02 25.41 26.31 27.22 27.66 27.76 26.69 26.56 25.75 25.84 25.30 24.29 22.87 22.98 23.67 26.04 26.12 24.74 24.33 23.43 27.09 24.32 23.72 22.86 24.08 24.94 25.55 24.64 24.87 26.96
24.70 24.50 24.11 24.22 23.72 23.49 23.45 23.24 22.83 24.37 25.59 25.28 25.39 25.70 27.04 26.13 25.65 24.70 24.25 22.67 21.19 21.64 22.21 23.96 26.09 24.82 20.45 15.52 20.56 24.42 22.26 22.58 22.95 22.81 23.49 23.21 23.81 24.42
22.58 21.32 20.91 21.53 21.70 21.82 22.05 21.74 21.79 22.30 23.01 23.74 23.99 24.62 25.36 24.70 24.27 23.47 22.90 21.91 20.91 20.27 19.76 20.42 21.00 23.01 20.87 18.71 17.65 17.88 24.08 23.25 23.26 21.15 20.06 21.53 23.24 23.22
20.33 20.52 20.47 20.25 20.22 20.52 20.78 21.08 22.23 21.71 22.14 22.57 22.75 23.29 23.73 23.43 22.50 22.14 21.22 19.90 19.93 19.07 16.82 16.83 19.41 23.45 22.27 21.61 16.89 16.43 16.51 19.39 19.28 20.39 19.79 19.38 20.30 21.33
18.20 18.44 18.96 18.52 18.11 18.70 19.81 19.69 20.13 20.21 20.50 20.72 21.21 21.49 22.65 23.12 22.09 21.50 21.33 20.43 19.20 18.36 17.64 19.24 20.96 21.47 21.78 20.02 16.85 16.49 16.65 17.84 17.69 17.51 17.45 17.08 18.22 19.17
16.14 16.74 17.28 17.04 16.48 16.99 17.01 17.33 16.98 17.25 17.92 18.67 18.51 19.55 20.38 20.23 21.34 21.46 21.11 20.30 20.21 19.33 19.19 18.48 19.79 20.79 20.00 19.16 17.81 16.08 15.70 17.30 18.46 16.50 17.10 17.46 17.00 17.32

GFSNE_sfc_wetblb_120.txt.gz
Wetbulb
63.46 63.75 63.20 63.42 63.65 63.37 62.12 60.80 57.73 54.09 55.14 57.60 58.15 61.84 62.09 61.87 60.20 60.30 60.80 55.41 50.94 50.23 50.90 52.83 55.18 56.41 56.75 57.02 57.54 57.95 58.67 58.66 58.78 58.74 58.64 58.96 60.00 60.60
63.59 63.39 63.35 63.44 63.64 63.73 62.55 61.81 61.02 58.19 55.73 59.04 58.47 60.87 62.09 61.99 59.75 60.27 60.46 55.75 50.35 49.03 48.84 50.24 52.06 54.49 54.80 55.08 55.22 55.63 56.45 56.88 57.29 57.29 57.62 57.91 58.71 59.56
63.05 63.01 62.84 63.40 63.61 62.69 62.23 61.40 60.87 59.71 57.24 58.12 59.09 59.74 58.84 60.00 59.65 59.15 60.09 59.78 58.94 48.52 47.94 48.57 49.22 50.00 50.67 51.62 52.28 53.07 53.90 54.55 54.98 55.64 56.35 57.18 58.18 58.90
62.31 62.22 62.15 62.86 62.71 63.37 61.10 59.80 59.14 59.19 58.17 57.19 58.65 59.10 58.89 59.08 59.95 58.59 59.55 60.51 59.76 52.74 48.19 48.24 48.46 48.39 48.61 48.91 49.43 49.83 50.41 50.95 51.62 52.62 53.45 54.94 56.47 57.71
62.06 61.74 61.79 62.40 62.13 61.34 60.84 60.05 59.30 60.03 59.93 57.79 57.38 59.29 58.44 58.93 58.95 59.84 59.41 58.99 59.76 55.34 47.81 47.34 47.77 47.79 47.68 48.31 48.99 48.97 49.04 48.79 48.66 49.08 49.54 50.10 51.70 53.42
61.01 58.25 55.53 55.77 55.65 55.17 55.75 55.24 55.81 54.95 56.19 57.09 56.17 55.49 57.80 58.54 58.88 56.85 57.11 58.05 57.45 58.68 54.53 51.16 49.43 48.31 47.38 47.38 47.61 48.07 48.31 48.45 48.39 47.75 47.30 46.52 46.84 48.71
48.58 47.78 43.92 44.42 42.30 42.93 49.61 47.99 48.85 50.02 50.53 51.67 52.82 54.13 55.68 56.05 55.68 57.07 56.75 56.80 56.57 57.13 54.95 53.20 53.79 51.80 50.71 46.35 48.80 47.89 47.62 47.45 47.61 47.52 47.13 45.79 45.08 45.66
37.80 41.04 42.15 38.36 40.26 40.60 40.87 37.29 39.76 42.76 44.60 46.71 48.51 49.87 51.82 54.45 55.81 55.67 55.76 54.78 48.28 46.78 51.41 51.84 45.93 52.50 52.04 51.03 48.13 46.88 45.07 45.80 46.14 46.37 46.26 45.34 44.30 43.83
33.18 33.70 35.06 35.44 35.27 38.96 40.08 36.87 36.30 35.54 34.90 36.98 39.61 39.38 37.03 36.60 35.79 40.07 48.42 54.11 52.48 48.19 48.99 45.55 38.29 36.73 38.62 40.97 42.90 44.62 43.85 44.33 44.45 44.05 43.76 42.83 42.27 41.53
31.28 31.56 31.85 31.59 32.56 35.82 40.62 37.02 34.58 33.89 34.08 34.57 33.60 31.94 32.20 32.73 33.41 35.06 37.37 40.95 42.27 39.12 41.37 36.58 33.53 32.21 34.93 37.37 40.02 41.48 42.44 42.59 42.57 42.03 41.65 40.84 40.13 39.23
28.68 29.98 30.00 30.17 31.92 33.15 33.75 33.80 31.90 30.63 33.68 33.16 32.46 31.69 31.30 31.58 31.51 33.38 35.44 37.27 36.07 34.80 33.71 33.53 31.88 31.25 31.79 31.58 33.63 38.07 38.64 38.97 38.74 38.28 37.48 36.11 35.03 33.97
28.29 28.49 30.32 29.77 30.74 30.64 28.56 28.65 27.80 28.05 28.17 28.78 28.82 29.35 29.86 29.88 30.13 28.64 28.32 30.11 33.51 32.97 33.89 33.14 32.18 31.73 27.94 31.10 31.39 31.73 31.91 33.65 34.52 34.74 34.38 33.35 32.21 29.66
28.05 28.52 29.88 31.13 31.09 30.68 29.74 27.55 26.73 27.82 27.26 27.08 26.55 26.45 27.03 27.43 27.92 28.11 27.74 26.60 27.18 32.44 33.32 33.35 32.43 31.88 30.42 27.75 29.62 30.60 31.14 31.19 31.43 31.59 32.27 31.76 31.08 28.89
28.23 29.54 30.52 31.38 30.66 30.56 29.86 30.40 29.77 27.73 26.80 25.76 24.78 24.17 24.25 24.80 26.21 27.60 27.79 27.41 27.45 26.46 31.33 32.80 32.23 31.58 27.77 25.63 24.89 28.80 28.91 29.28 28.95 27.84 29.46 31.72 31.58 30.65
29.99 29.92 30.58 30.81 30.72 28.93 29.53 29.40 29.24 29.08 28.29 26.06 24.64 24.49 25.34 26.18 26.93 27.27 28.16 28.06 27.66 27.10 28.00 30.45 32.19 31.35 30.52 25.69 25.21 24.35 23.84 25.20 26.44 25.12 25.47 25.54 25.38 26.34
28.59 27.76 27.62 27.77 27.22 27.12 27.41 26.80 26.66 26.96 27.19 27.15 27.09 27.45 25.21 26.18 25.75 26.36 25.20 25.69 24.48 24.36 26.52 28.20 28.89 28.78 26.91 27.25 25.67 23.89 24.30 22.14 24.96 25.48 26.01 26.18 26.70 27.46
26.06 25.02 23.97 23.78 23.29 23.14 23.74 24.51 24.43 24.62 24.59 25.56 26.01 26.02 25.40 25.11 24.88 25.30 24.71 23.91 22.64 23.21 23.39 24.95 25.90 26.88 26.99 26.30 23.37 24.08 23.73 24.07 25.97 26.15 26.11 25.06 26.24 27.32
22.50 20.63 19.98 20.37 20.46 20.94 20.70 21.21 21.85 22.06 22.89 23.86 23.70 24.31 24.95 23.72 23.71 23.90 23.49 21.90 20.41 20.95 21.58 25.46 25.48 24.16 23.40 22.87 27.80 23.58 23.78 23.87 25.29 26.59 25.80 23.46 23.40 25.68
19.01 18.19 17.62 18.25 18.40 19.15 18.96 19.72 19.55 20.57 21.96 23.18 22.62 22.55 23.59 23.30 23.23 22.47 22.15 21.21 19.93 20.05 20.20 21.41 25.16 22.40 17.60 14.09 20.80 26.69 21.80 22.63 23.35 22.64 23.81 23.94 23.22 23.98
17.25 16.86 15.89 16.02 16.77 17.12 17.65 17.54 19.32 19.06 19.46 20.21 20.22 21.44 21.85 22.15 20.73 19.76 19.87 19.09 19.17 18.92 18.22 19.06 19.85 20.63 19.33 17.40 15.16 17.05 25.28 22.85 21.67 20.10 20.44 22.16 23.05 25.31
15.08 15.32 15.93 15.18 15.13 15.67 16.45 16.24 16.69 16.28 16.06 17.51 17.94 17.74 19.22 21.30 19.49 20.11 19.83 17.69 18.81 18.33 16.36 16.71 20.07 22.82 22.06 21.32 16.00 15.05 16.57 22.04 22.00 21.52 20.84 19.53 18.55 19.27
12.92 13.21 14.53 14.18 12.69 12.70 13.06 13.76 14.10 14.23 13.97 14.67 15.19 16.22 16.64 18.21 17.91 15.77 16.46 16.56 17.25 17.36 17.05 18.60 20.91 22.74 22.16 18.35 14.90 14.75 15.51 16.19 18.77 19.67 19.90 18.64 17.90 17.29
11.36 11.51 12.08 12.36 11.34 11.20 11.78 10.68 11.65 10.77 10.43 10.08 11.81 14.28 16.02 11.29 14.55 17.08 15.07 14.44 14.97 15.08 17.21 16.88 18.66 19.86 19.09 18.30 16.91 15.30 15.71 16.09 16.39 15.77 16.61 18.18 18.19 18.07

GFSNE_sfc_wetblb_123.txt.gz
Wetbulb
62.33 63.42 62.95 62.96 63.28 63.12 61.31 59.46 57.40 52.94 55.20 56.95 57.84 62.36 62.59 62.04 60.20 60.11 60.07 54.64 51.02 50.11 50.65 52.30 54.32 55.60 56.79 57.56 57.87 58.24 58.87 59.06 59.13 59.09 59.26 59.54 60.06 60.32
63.09 62.64 62.80 62.93 62.61 62.97 61.45 60.40 58.26 56.63 53.17 58.06 57.89 59.97 62.32 62.02 59.88 60.60 60.06 55.31 50.11 49.20 48.84 49.87 51.37 53.55 54.44 55.22 55.74 56.11 56.77 57.35 57.78 57.89 57.83 58.29 58.96 59.33
62.94 62.38 61.96 62.72 62.03 62.33 62.35 61.05 58.87 58.19 56.39 56.93 58.44 59.08 59.28 60.31 59.40 59.10 59.52 59.26 59.03 48.84 48.28 48.26 48.26 49.46 50.60 52.11 53.15 53.92 54.65 55.05 55.56 56.10 56.46 57.25 58.19 58.44
61.59 62.17 61.68 62.25 61.99 62.49 61.02 60.42 60.25 59.15 56.74 56.20 57.52 57.48 57.44 58.60 59.50 58.22 58.88 59.97 59.77 53.83 48.10 47.74 47.34 47.30 48.01 48.93 50.07 50.36 51.40 51.89 52.36 53.27 54.08 55.01 56.02 56.77
62.02 61.63 61.81 61.97 61.44 61.67 59.25 58.91 58.25 58.49 57.46 56.78 57.41 57.96 57.88 57.61 56.98 57.64 57.82 58.44 59.38 55.06 48.64 47.12 46.97 46.90 47.05 48.12 48.91 49.29 49.51 49.73 49.49 49.77 50.37 50.63 51.44 53.42
56.64 55.14 51.59 52.63 57.44 59.63 59.97 58.69 56.74 56.58 56.38 56.88 56.13 56.24 56.54 57.28 57.62 57.08 56.70 58.64 58.08 58.41 54.85 51.23 48.53 47.39 46.65 47.01 47.41 48.39 48.89 49.05 48.96 48.40 47.96 46.98 46.89 48.46
43.62 40.58 39.89 40.85 41.45 42.46 50.51 50.42 51.89 51.51 50.95 52.09 51.86 53.11 53.85 54.45 53.57 55.18 55.22 54.72 57.00 57.97 57.04 57.16 54.35 51.76 50.86 46.51 48.91 47.34 47.57 48.42 48.66 48.97 48.39 47.14 45.98 46.42
37.05 36.19 37.03 37.90 40.71 38.38 37.47 37.73 36.92 45.12 46.56 47.30 48.44 48.51 49.74 46.18 41.91 43.34 47.36 52.46 52.53 51.50 55.84 55.42 51.10 54.61 53.99 53.92 48.40 46.38 45.62 46.42 47.41 48.02 48.14 47.46 46.42 45.57
32.26 33.22 34.15 35.55 38.27 40.69 37.44 35.87 34.89 34.91 34.32 38.84 40.88 37.26 37.28 34.57 34.81 36.63 40.79 41.85 45.35 46.51 47.30 51.48 40.80 42.46 38.36 40.20 40.32 41.17 43.12 44.50 45.42 46.13 46.76 46.22 45.26 44.24
30.30 29.73 30.84 31.14 33.49 36.81 35.25 32.96 31.11 32.06 31.89 32.31 31.66 30.89 31.20 31.88 32.43 33.45 34.27 35.09 37.31 39.88 43.09 41.77 33.80 32.71 33.92 34.71 38.10 39.83 40.80 41.85 43.20 44.21 45.24 45.46 44.33 43.34
30.00 31.26 30.22 29.89 31.69 32.44 31.29 30.42 28.95 27.96 31.28 32.06 31.90 31.63 31.21 31.34 31.14 31.52 30.39 30.66 34.13 34.69 33.80 35.25 32.16 31.38 31.55 31.34 32.39 36.27 37.50 39.23 40.78 42.15 43.41 43.25 40.47 37.71
29.94 30.30 31.79 31.12 31.92 30.88 28.05 27.27 25.37 25.88 26.98 27.37 27.34 28.04 28.88 28.96 29.75 28.49 27.52 28.13 30.22 33.60 33.07 33.43 31.95 32.07 29.95 30.63 31.07 32.00 32.54 34.84 36.12 37.99 40.07 40.77 38.76 36.18
28.01 28.50 30.12 30.70 30.55 30.60 30.69 28.85 27.06 27.44 26.73 26.55 26.33 26.43 26.57 26.85 27.21 27.85 27.65 26.05 25.64 29.90 31.65 32.35 32.33 31.98 30.44 27.53 28.90 30.29 31.16 31.28 31.39 32.04 33.30 33.42 34.19 34.95
26.38 27.62 28.10 29.29 29.19 28.42 27.46 28.42 28.84 29.12 28.32 27.28 26.43 25.54 25.39 25.60 26.48 27.41 28.01 27.65 27.38 26.06 27.78 30.96 32.15 32.00 28.26 26.53 25.23 27.77 27.04 27.60 28.67 29.46 29.96 31.16 31.36 31.34
26.14 26.82 27.41 26.88 26.73 25.90 26.43 26.15 25.66 25.74 25.92 25.66 25.09 25.59 26.22 26.87 26.78 26.91 27.90 28.34 27.91 27.56 27.14 29.03 31.34 31.84 30.86 27.21 25.54 23.91 23.60 24.57 26.11 25.99 26.15 26.55 27.41 27.48
23.89 23.64 23.61 24.57 23.54 22.92 23.26 23.27 23.52 23.42 23.53 23.42 23.63 25.73 26.21 25.69 24.15 24.34 21.81 22.82 22.90 24.21 27.08 26.94 28.49 29.27 27.52 27.97 26.01 23.93 23.84 21.81 24.93 25.42 25.68 26.11 26.65 27.04
20.89 20.44 19.45 19.62 18.86 19.14 20.47 21.20 21.42 21.61 21.93 22.61 22.47 23.14 23.95 23.41 23.21 23.34 22.36 19.87 18.98 19.71 20.67 24.75 26.21 26.59 26.51 26.50 23.29 23.74 23.06 23.45 25.36 25.50 25.68 24.60 26.19 26.11
17.63 15.20 14.65 15.25 15.80 16.31 16.47 17.39 19.31 19.21 20.42 21.20 21.65 21.85 21.52 20.92 21.14 21.44 20.90 18.44 17.78 18.29 18.36 20.39 23.03 21.98 22.47 23.41 27.30 23.72 24.27 24.09 25.54 26.15 25.56 23.03 22.02 24.66
14.47 13.54 12.24 12.45 13.38 14.50 15.34 15.16 15.80 16.62 18.51 18.85 18.35 18.96 20.45 21.44 20.07 19.13 19.24 19.03 18.07 18.22 18.51 19.83 21.11 18.08 15.37 12.77 19.58 26.53 22.92 24.08 24.18 23.70 24.55 24.23 20.95 22.23
12.88 12.61 12.28 11.68 11.95 11.99 12.62 12.69 13.74 14.00 13.45 14.68 15.22 15.95 16.89 19.36 18.14 18.82 17.87 16.55 17.58 17.68 17.47 18.74 18.71 18.28 15.08 12.41 12.46 16.25 26.09 22.57 21.72 20.37 20.17 22.42 24.17 25.70
10.42 10.52 11.99 11.48 10.69 11.05 9.56 9.49 10.75 10.15 8.66 8.69 10.02 11.87 14.08 15.88 16.23 15.58 14.46 14.53 16.01 17.42 15.91 16.55 19.47 22.39 21.65 20.51 13.61 13.93 16.44 24.61 24.19 21.44 21.18 19.15 18.52 19.07
6.62 9.11 10.19 9.59 7.31 7.86 8.91 6.67 7.46 6.83 6.89 6.83 6.74 7.99 11.00 14.49 13.70 14.18 12.04 8.45 14.19 16.36 17.47 19.32 21.85 22.45 20.57 17.46 14.10 13.61 14.13 16.39 20.21 22.74 21.68 20.60 19.73 16.17
0.73 3.74 1.82 -0.56 -0.03 2.03 8.06 3.70 2.03 0.29 1.38 2.76 4.99 7.01 8.52 11.44 14.12 13.04 13.98 12.42 11.93 12.47 13.96 16.01 18.59 20.55 19.44 17.94 16.11 15.24 14.30 15.25 15.35 15.39 17.04 19.09 19.05 19.30

GFSNE_sfc_wetblb_126.txt.gz
Wetbulb
60.20 58.61 57.63 57.99 58.17 63.01 60.83 59.62 57.76 51.71 55.11 55.43 56.58 61.91 62.40 62.13 60.30 60.49 60.49 54.21 50.56 49.84 50.20 51.63 53.97 55.79 56.58 57.72 58.03 58.48 59.18 59.36 59.32 59.26 59.30 59.65 60.04 60.34
58.59 57.81 58.31 57.29 59.33 59.74 62.06 62.14 58.37 58.01 53.97 58.14 57.30 58.57 61.78 61.82 59.53 60.61 60.22 55.23 50.94 49.66 48.39 49.11 50.52 53.11 54.18 54.82 55.73 56.42 57.26 57.65 57.99 58.05 58.17 58.65 59.05 59.30
58.57 57.98 58.09 59.34 59.61 58.49 58.63 61.70 60.94 57.86 55.47 55.05 56.52 57.34 59.84 60.69 60.44 59.86 60.07 59.65 58.92 49.49 48.40 47.66 47.66 48.77 50.16 51.00 52.03 53.22 54.51 55.73 56.18 56.66 57.28 57.71 58.41 58.84
57.54 59.87 60.27 60.98 60.56 60.04 58.25 60.24 60.89 59.86 57.32 56.21 55.34 55.96 56.99 60.13 60.28 59.13 59.52 60.13 60.09 53.61 48.75 47.66 47.28 46.94 47.30 48.02 48.73 49.64 51.19 52.25 53.42 54.23 54.82 55.77 56.68 57.64
52.61 55.07 56.08 54.57 58.12 60.89 61.20 61.07 60.85 60.23 58.56 55.38 55.25 56.34 56.64 56.78 57.87 57.89 58.73 59.01 59.28 54.55 47.86 46.57 46.56 46.74 46.34 46.36 47.06 47.77 48.31 49.20 49.58 50.77 51.36 52.01 52.95 54.11
41.46 41.04 42.30 45.20 51.64 60.40 60.75 60.73 60.05 59.03 58.09 56.80 54.46 53.97 55.30 55.62 55.80 55.14 56.22 57.75 57.95 58.58 54.47 50.71 48.51 47.21 46.48 46.29 45.96 46.47 47.15 48.53 48.95 49.65 49.54 48.69 48.25 49.99
37.04 37.89 38.55 39.44 38.63 40.13 53.64 49.91 57.41 58.57 56.74 55.34 53.55 54.09 54.47 54.49 53.75 53.09 54.44 54.29 56.82 56.78 56.60 57.09 55.20 52.99 51.75 45.80 47.75 45.87 45.91 46.59 47.82 48.15 48.35 47.28 46.14 47.08
32.93 34.44 35.86 37.78 38.44 36.11 36.57 36.87 37.28 44.75 49.72 50.63 50.45 49.67 46.14 42.18 41.15 43.11 44.39 48.08 49.20 48.11 53.79 55.81 54.49 55.24 53.87 52.69 41.36 43.67 43.98 45.15 46.05 46.96 47.48 47.14 46.59 46.29
31.10 31.55 32.23 33.49 35.52 36.08 34.82 34.45 33.61 33.93 33.76 40.33 38.05 34.67 35.52 33.00 34.87 37.49 40.10 40.79 43.21 44.45 42.23 44.15 41.61 41.84 38.67 38.90 38.59 39.77 40.60 41.43 43.23 43.93 44.51 44.51 44.86 44.87
30.26 30.45 30.53 30.92 31.93 32.77 32.44 30.85 29.61 30.90 31.04 31.90 30.72 30.60 30.70 31.29 31.52 32.85 34.14 34.16 34.95 36.76 38.93 37.13 34.97 35.35 34.01 34.43 35.81 37.16 38.39 39.74 40.92 41.60 42.29 42.68 42.72 43.24
29.45 30.14 29.58 29.66 31.85 32.05 29.19 28.54 27.38 26.85 30.42 31.48 31.78 31.34 31.21 31.36 30.66 32.04 29.11 30.57 32.39 33.71 33.36 33.34 32.45 32.27 31.83 31.47 32.32 35.03 35.76 37.19 38.82 40.05 41.00 41.51 41.87 41.87
27.64 28.40 30.15 28.95 29.98 29.91 28.39 27.85 25.81 25.77 26.77 27.20 27.63 28.21 28.66 28.68 29.58 28.20 27.17 27.11 28.78 31.85 29.56 29.80 32.45 32.45 32.45 30.16 30.46 31.48 32.08 33.42 34.68 35.40 36.36 40.26 40.99 42.32
24.44 24.63 26.31 27.92 28.07 28.27 28.04 26.49 26.42 28.64 28.07 27.73 27.37 27.24 27.41 27.16 27.37 27.92 27.70 25.81 24.54 26.23 28.99 27.39 31.83 32.06 31.14 29.09 28.95 28.79 28.78 29.29 30.11 30.63 33.20 37.20 37.51 35.81
22.99 23.97 24.52 26.17 26.11 25.98 25.03 26.27 26.27 25.78 25.71 25.72 25.00 24.50 24.60 24.89 25.44 26.67 27.96 28.07 27.71 25.89 27.09 27.35 28.32 31.85 29.25 26.97 26.70 26.71 26.30 26.68 27.93 28.72 28.92 31.39 33.00 33.04
22.07 23.27 23.35 23.24 23.83 23.01 24.46 24.00 22.93 23.06 22.85 22.05 22.00 23.54 24.12 25.13 24.96 24.54 25.71 24.88 26.03 27.16 27.41 26.86 27.15 28.61 30.41 28.65 26.10 24.45 24.44 24.85 26.63 26.22 27.13 27.63 27.15 27.88
18.78 18.68 19.18 20.42 18.44 18.29 19.18 20.28 20.24 20.99 20.99 21.11 21.32 22.93 23.86 23.64 22.50 23.49 21.83 21.64 21.58 21.50 24.26 25.28 25.89 27.52 27.32 27.50 26.47 24.48 24.49 22.80 25.20 25.83 26.29 26.31 26.66 27.70
15.28 14.55 13.73 13.97 13.56 14.59 14.86 16.40 16.56 17.12 17.59 18.62 18.67 19.52 21.39 21.08 20.57 21.69 21.26 19.86 17.42 17.67 18.40 21.32 25.66 25.83 24.69 25.67 23.13 23.51 23.50 23.69 25.13 25.59 25.52 23.90 24.59 25.55
13.16 10.23 8.99 9.73 9.93 10.94 11.29 12.07 13.35 13.01 13.67 15.99 15.37 16.50 17.01 19.44 19.83 19.88 19.90 18.69 17.41 17.26 16.92 17.87 18.87 19.42 21.08 21.63 25.08 23.01 24.13 24.05 25.43 25.91 25.43 22.23 21.38 24.22
9.63 9.49 7.70 7.54 8.53 9.06 8.92 9.57 9.20 9.92 10.61 10.64 11.37 12.32 14.37 16.25 17.03 17.28 17.10 16.69 16.78 17.57 17.45 18.62 18.19 14.52 9.55 9.69 18.00 24.28 22.19 23.94 24.35 23.64 24.49 22.44 20.82 22.37
8.88 8.15 7.27 6.75 7.31 8.19 7.65 6.90 7.51 6.96 6.44 6.67 7.04 7.63 9.05 12.91 14.33 14.54 14.05 9.21 13.68 16.60 16.92 17.63 17.70 17.22 11.86 9.58 9.44 16.38 26.07 22.56 21.72 20.88 21.22 22.41 23.57 25.41
8.24 8.20 7.02 5.98 5.94 6.89 5.42 2.47 0.58 1.31 1.47 1.23 3.73 5.74 5.86 9.71 11.53 12.90 11.68 9.53 11.03 16.30 15.40 16.10 18.85 21.56 20.83 19.73 11.27 13.53 16.95 25.90 24.65 21.55 21.54 19.40 18.41 19.44
2.79 6.86 6.77 4.06 -0.14 1.74 -2.54 -9.24 -2.43 -2.30 -1.31 -0.16 0.20 2.15 3.20 7.29 8.71 11.03 11.30 8.61 10.47 11.70 14.15 17.94 21.41 21.69 20.33 17.29 13.65 13.18 14.98 17.13 21.54 23.01 22.85 22.02 19.36 15.56
-2.20 1.15 -0.95 -4.04 -4.36 -3.81 1.52 -5.80 -6.76 -9.98 -4.81 -2.62 -2.05 0.75 1.65 2.95 8.53 9.87 8.34 9.81 10.36 10.01 11.41 12.17 16.43 19.86 18.36 17.08 15.69 14.57 14.40 15.81 16.82 17.43 17.82 20.91 20.77 22.29